Time,TemperatureF,DewpointF,PressureIn,WindDirection,WindDirectionDegrees,WindSpeedMPH,WindSpeedGustMPH,Humidity,HourlyPrecipIn,Conditions,Clouds,dailyrainin,SoftwareType,DateUTC
2013-03-30 00:00:00,48.7,40.5,30.65,North,0,0.0,0.0,73,0.00,,,0.00,VWS V13.01,2013-03-30 05:00:00,
2013-03-30 00:01:00,48.6,40.3,30.65,North,0,0.0,0.0,73,0.00,,,0.00,VWS V13.01,2013-03-30 05:01:00,
2013-03-30 00:05:00,48.4,40.1,30.65,North,0,0.0,0.0,73,0.00,,,0.00,VWS V13.01,2013-03-30 05:05:00,
2013-03-30 00:06:00,48.4,40.1,30.65,North,0,0.0,0.0,73,0.00,,,0.00,VWS V13.01,2013-03-30 05:06:00,
2013-03-30 00:07:00,48.4,40.1,30.65,North,0,0.0,0.0,73,0.00,,,0.00,VWS V13.01,2013-03-30 05:07:00,
2013-03-30 00:10:00,48.4,40.1,30.65,North,0,0.0,0.0,73,0.00,,,0.00,VWS V13.01,2013-03-30 05:10:00,
2013-03-30 00:11:00,48.4,40.1,30.65,North,0,0.0,0.0,73,0.00,,,0.00,VWS V13.01,2013-03-30 05:11:00,
2013-03-30 00:12:00,48.6,40.3,30.65,North,0,0.0,0.0,73,0.00,,,0.00,VWS V13.01,2013-03-30 05:12:00,
2013-03-30 00:15:00,48.7,40.5,30.65,North,0,0.0,0.0,73,0.00,,,0.00,VWS V13.01,2013-03-30 05:15:00,
2013-03-30 00:17:00,48.7,40.5,30.65,North,0,0.0,0.0,73,0.00,,,0.00,VWS V13.01,2013-03-30 05:17:00,
2013-03-30 00:20:00,48.6,40.3,30.65,North,0,0.0,0.0,73,0.00,,,0.00,VWS V13.01,2013-03-30 05:20:00,
2013-03-30 00:22:00,48.7,40.5,30.65,North,0,0.0,0.0,73,0.00,,,0.00,VWS V13.01,2013-03-30 05:22:00,
2013-03-30 00:23:00,48.9,40.7,30.65,North,0,0.0,0.0,73,0.00,,,0.00,VWS V13.01,2013-03-30 05:23:00,
2013-03-30 00:25:00,48.7,40.5,30.65,North,0,0.0,0.0,73,0.00,,,0.00,VWS V13.01,2013-03-30 05:25:00,
2013-03-30 00:27:00,48.7,40.5,30.65,North,0,0.0,0.0,73,0.00,,,0.00,VWS V13.01,2013-03-30 05:27:00,
2013-03-30 00:28:00,48.6,40.3,30.65,North,0,0.0,0.0,73,0.00,,,0.00,VWS V13.01,2013-03-30 05:28:00,
2013-03-30 00:30:00,48.7,40.5,30.65,North,0,0.0,0.0,73,0.00,,,0.00,VWS V13.01,2013-03-30 05:30:00,
2013-03-30 00:32:00,48.7,40.5,30.65,North,0,0.0,0.0,73,0.00,,,0.00,VWS V13.01,2013-03-30 05:32:00,
2013-03-30 00:33:00,48.7,40.5,30.65,North,0,0.0,0.0,73,0.00,,,0.00,VWS V13.01,2013-03-30 05:33:00,
2013-03-30 00:35:00,48.6,40.3,30.65,North,0,0.0,0.0,73,0.00,,,0.00,VWS V13.01,2013-03-30 05:35:00,
2013-03-30 00:37:00,48.4,40.1,30.65,North,0,0.0,0.0,73,0.00,,,0.00,VWS V13.01,2013-03-30 05:37:00,
2013-03-30 00:38:00,48.4,40.1,30.65,North,0,0.0,0.0,73,0.00,,,0.00,VWS V13.01,2013-03-30 05:38:00,
2013-03-30 00:40:00,48.4,40.1,30.65,North,0,0.0,0.0,73,0.00,,,0.00,VWS V13.01,2013-03-30 05:40:00,
2013-03-30 00:42:00,48.0,41.8,30.65,North,0,0.0,0.0,79,0.00,,,0.00,VWS V13.01,2013-03-30 05:42:00,
2013-03-30 00:43:00,48.0,41.8,30.65,North,0,0.0,0.0,79,0.00,,,0.00,VWS V13.01,2013-03-30 05:43:00,
2013-03-30 00:45:00,48.0,41.8,30.65,North,0,0.0,0.0,79,0.00,,,0.00,VWS V13.01,2013-03-30 05:45:00,
2013-03-30 00:47:00,47.8,41.7,30.65,North,0,0.0,0.0,79,0.00,,,0.00,VWS V13.01,2013-03-30 05:47:00,
2013-03-30 00:48:00,47.7,41.5,30.65,North,0,0.0,0.0,79,0.00,,,0.00,VWS V13.01,2013-03-30 05:48:00,
2013-03-30 00:50:00,47.5,41.3,30.65,North,0,0.0,0.0,79,0.00,,,0.00,VWS V13.01,2013-03-30 05:50:00,
2013-03-30 00:52:00,47.5,41.3,30.65,North,0,0.0,0.0,79,0.00,,,0.00,VWS V13.01,2013-03-30 05:52:00,
2013-03-30 00:53:00,47.5,41.3,30.65,North,0,0.0,0.0,79,0.00,,,0.00,VWS V13.01,2013-03-30 05:53:00,
2013-03-30 00:55:00,47.5,41.3,30.65,North,0,0.0,0.0,79,0.00,,,0.00,VWS V13.01,2013-03-30 05:55:00,
2013-03-30 00:57:00,47.5,41.3,30.65,North,0,0.0,0.0,79,0.00,,,0.00,VWS V13.01,2013-03-30 05:57:00,
2013-03-30 00:58:00,47.5,41.3,30.65,North,0,0.0,0.0,79,0.00,,,0.00,VWS V13.01,2013-03-30 05:58:00,
2013-03-30 01:00:00,47.1,41.0,30.65,North,0,0.0,0.0,79,0.00,,,0.00,VWS V13.01,2013-03-30 06:00:00,
2013-03-30 01:02:00,46.8,40.6,30.65,North,0,0.0,0.0,79,0.00,,,0.00,VWS V13.01,2013-03-30 06:02:00,
2013-03-30 01:03:00,46.8,40.6,30.65,North,0,0.0,0.0,79,0.00,,,0.00,VWS V13.01,2013-03-30 06:03:00,
2013-03-30 01:05:00,46.6,40.4,30.65,North,0,0.0,0.0,79,0.00,,,0.00,VWS V13.01,2013-03-30 06:05:00,
2013-03-30 01:07:00,46.8,40.6,30.65,North,0,0.0,0.0,79,0.00,,,0.00,VWS V13.01,2013-03-30 06:07:00,
2013-03-30 01:08:00,46.8,40.6,30.65,North,0,0.0,0.0,79,0.00,,,0.00,VWS V13.01,2013-03-30 06:08:00,
2013-03-30 01:10:00,46.9,40.8,30.65,North,0,0.0,0.0,79,0.00,,,0.00,VWS V13.01,2013-03-30 06:10:00,
2013-03-30 01:13:00,46.8,40.6,30.65,North,0,0.0,0.0,79,0.00,,,0.00,VWS V13.01,2013-03-30 06:13:00,
2013-03-30 01:15:00,46.8,40.6,30.65,North,0,0.0,0.0,79,0.00,,,0.00,VWS V13.01,2013-03-30 06:15:00,
2013-03-30 01:18:00,46.8,40.6,30.65,North,0,0.0,0.0,79,0.00,,,0.00,VWS V13.01,2013-03-30 06:18:00,
2013-03-30 01:20:00,46.6,40.4,30.65,North,0,0.0,0.0,79,0.00,,,0.00,VWS V13.01,2013-03-30 06:20:00,
2013-03-30 01:21:00,46.6,40.4,30.65,North,0,0.0,0.0,79,0.00,,,0.00,VWS V13.01,2013-03-30 06:21:00,
2013-03-30 01:23:00,46.6,40.4,30.65,North,0,0.0,0.0,79,0.00,,,0.00,VWS V13.01,2013-03-30 06:23:00,
2013-03-30 01:25:00,46.6,40.4,30.65,North,0,0.0,0.0,79,0.00,,,0.00,VWS V13.01,2013-03-30 06:25:00,
2013-03-30 01:26:00,46.6,40.4,30.65,North,0,0.0,0.0,79,0.00,,,0.00,VWS V13.01,2013-03-30 06:26:00,
2013-03-30 01:28:00,46.6,40.4,30.65,North,0,0.0,0.0,79,0.00,,,0.00,VWS V13.01,2013-03-30 06:28:00,
2013-03-30 01:30:00,46.6,40.4,30.65,North,0,0.0,0.0,79,0.00,,,0.00,VWS V13.01,2013-03-30 06:30:00,
2013-03-30 01:31:00,46.6,40.4,30.65,North,0,0.0,0.0,79,0.00,,,0.00,VWS V13.01,2013-03-30 06:31:00,
2013-03-30 01:33:00,46.4,40.2,30.65,North,0,0.0,0.0,79,0.00,,,0.00,VWS V13.01,2013-03-30 06:33:00,
2013-03-30 01:35:00,46.2,40.1,30.65,North,0,0.0,0.0,79,0.00,,,0.00,VWS V13.01,2013-03-30 06:35:00,
2013-03-30 01:36:00,46.2,40.1,30.65,North,0,0.0,0.0,79,0.00,,,0.00,VWS V13.01,2013-03-30 06:36:00,
2013-03-30 01:38:00,46.2,40.1,30.65,North,0,0.0,0.0,79,0.00,,,0.00,VWS V13.01,2013-03-30 06:38:00,
2013-03-30 01:40:00,46.2,40.1,30.65,North,0,0.0,0.0,79,0.00,,,0.00,VWS V13.01,2013-03-30 06:40:00,
2013-03-30 01:41:00,46.2,40.1,30.65,North,0,0.0,0.0,79,0.00,,,0.00,VWS V13.01,2013-03-30 06:41:00,
2013-03-30 01:43:00,46.0,39.9,30.68,North,0,0.0,0.0,79,0.00,,,0.00,VWS V13.01,2013-03-30 06:43:00,
2013-03-30 01:46:00,46.0,39.9,30.68,North,0,0.0,0.0,79,0.00,,,0.00,VWS V13.01,2013-03-30 06:46:00,
2013-03-30 01:48:00,46.2,40.1,30.68,North,0,0.0,0.0,79,0.00,,,0.00,VWS V13.01,2013-03-30 06:48:00,
2013-03-30 01:51:00,46.6,40.4,30.68,North,0,0.0,0.0,79,0.00,,,0.00,VWS V13.01,2013-03-30 06:51:00,
2013-03-30 01:53:00,46.6,40.4,30.68,North,0,0.0,0.0,79,0.00,,,0.00,VWS V13.01,2013-03-30 06:53:00,
2013-03-30 01:56:00,46.8,40.6,30.68,North,0,0.0,0.0,79,0.00,,,0.00,VWS V13.01,2013-03-30 06:56:00,
2013-03-30 01:58:00,46.9,40.8,30.65,North,0,0.0,0.0,79,0.00,,,0.00,VWS V13.01,2013-03-30 06:58:00,
2013-03-30 02:01:00,46.8,40.6,30.65,North,0,0.0,0.0,79,0.00,,,0.00,VWS V13.01,2013-03-30 07:01:00,
2013-03-30 02:03:00,46.8,40.6,30.65,North,0,0.0,0.0,79,0.00,,,0.00,VWS V13.01,2013-03-30 07:03:00,
2013-03-30 02:06:00,46.8,40.6,30.65,North,0,0.0,0.0,79,0.00,,,0.00,VWS V13.01,2013-03-30 07:06:00,
2013-03-30 02:08:00,46.8,40.6,30.65,North,0,0.0,0.0,79,0.00,,,0.00,VWS V13.01,2013-03-30 07:08:00,
2013-03-30 02:09:00,46.8,40.6,30.65,North,0,0.0,0.0,79,0.00,,,0.00,VWS V13.01,2013-03-30 07:09:00,
2013-03-30 02:11:00,46.9,40.8,30.65,North,0,0.0,0.0,79,0.00,,,0.00,VWS V13.01,2013-03-30 07:11:00,
2013-03-30 02:12:00,46.9,40.8,30.65,North,0,0.0,0.0,79,0.00,,,0.00,VWS V13.01,2013-03-30 07:12:00,
2013-03-30 02:13:00,46.9,40.8,30.65,North,0,0.0,0.0,79,0.00,,,0.00,VWS V13.01,2013-03-30 07:13:00,
2013-03-30 02:14:00,47.1,41.0,30.65,North,0,0.0,0.0,79,0.00,,,0.00,VWS V13.01,2013-03-30 07:14:00,
2013-03-30 02:16:00,47.1,41.0,30.65,North,0,0.0,0.0,79,0.00,,,0.00,VWS V13.01,2013-03-30 07:16:00,
2013-03-30 02:17:00,47.3,41.1,30.65,North,0,0.0,0.0,79,0.00,,,0.00,VWS V13.01,2013-03-30 07:17:00,
2013-03-30 02:18:00,47.3,41.1,30.65,North,0,0.0,0.0,79,0.00,,,0.00,VWS V13.01,2013-03-30 07:18:00,
2013-03-30 02:19:00,47.5,41.3,30.65,North,0,0.0,0.0,79,0.00,,,0.00,VWS V13.01,2013-03-30 07:19:00,
2013-03-30 02:21:00,47.5,41.3,30.65,North,0,0.0,0.0,79,0.00,,,0.00,VWS V13.01,2013-03-30 07:21:00,
2013-03-30 02:22:00,47.7,41.5,30.65,North,0,0.0,0.0,79,0.00,,,0.00,VWS V13.01,2013-03-30 07:22:00,
2013-03-30 02:23:00,47.5,41.3,30.65,North,0,0.0,0.0,79,0.00,,,0.00,VWS V13.01,2013-03-30 07:23:00,
2013-03-30 02:24:00,47.5,41.3,30.65,North,0,0.0,0.0,79,0.00,,,0.00,VWS V13.01,2013-03-30 07:24:00,
2013-03-30 02:26:00,47.5,41.3,30.65,North,0,0.0,0.0,79,0.00,,,0.00,VWS V13.01,2013-03-30 07:26:00,
2013-03-30 02:27:00,47.5,41.3,30.65,North,0,0.0,0.0,79,0.00,,,0.00,VWS V13.01,2013-03-30 07:27:00,
2013-03-30 02:28:00,47.5,41.3,30.65,North,0,0.0,0.0,79,0.00,,,0.00,VWS V13.01,2013-03-30 07:28:00,
2013-03-30 02:29:00,47.5,41.3,30.65,North,0,0.0,0.0,79,0.00,,,0.00,VWS V13.01,2013-03-30 07:29:00,
2013-03-30 02:31:00,47.3,41.1,30.65,North,0,0.0,0.0,79,0.00,,,0.00,VWS V13.01,2013-03-30 07:31:00,
2013-03-30 02:32:00,47.3,41.1,30.65,North,0,0.0,0.0,79,0.00,,,0.00,VWS V13.01,2013-03-30 07:32:00,
2013-03-30 02:33:00,47.1,41.0,30.65,North,0,0.0,0.0,79,0.00,,,0.00,VWS V13.01,2013-03-30 07:33:00,
2013-03-30 02:34:00,47.3,41.1,30.65,North,0,0.0,0.0,79,0.00,,,0.00,VWS V13.01,2013-03-30 07:34:00,
2013-03-30 02:36:00,47.3,41.1,30.65,North,0,0.0,0.0,79,0.00,,,0.00,VWS V13.01,2013-03-30 07:36:00,
2013-03-30 02:37:00,47.3,41.1,30.65,North,0,0.0,0.0,79,0.00,,,0.00,VWS V13.01,2013-03-30 07:37:00,
2013-03-30 02:38:00,47.3,41.1,30.65,North,0,0.0,0.0,79,0.00,,,0.00,VWS V13.01,2013-03-30 07:38:00,
2013-03-30 02:39:00,47.3,41.1,30.65,North,0,0.0,0.0,79,0.00,,,0.00,VWS V13.01,2013-03-30 07:39:00,
2013-03-30 02:41:00,47.7,41.5,30.65,North,0,0.0,0.0,79,0.00,,,0.00,VWS V13.01,2013-03-30 07:41:00,
2013-03-30 02:42:00,47.7,41.5,30.68,North,0,0.0,0.0,79,0.00,,,0.00,VWS V13.01,2013-03-30 07:42:00,
2013-03-30 02:43:00,47.8,41.7,30.68,North,0,0.0,0.0,79,0.00,,,0.00,VWS V13.01,2013-03-30 07:43:00,
2013-03-30 02:44:00,48.0,41.8,30.68,North,0,0.0,0.0,79,0.00,,,0.00,VWS V13.01,2013-03-30 07:44:00,
2013-03-30 02:46:00,48.4,40.1,30.68,North,0,0.0,0.0,73,0.00,,,0.00,VWS V13.01,2013-03-30 07:46:00,
2013-03-30 02:47:00,48.4,40.1,30.68,North,0,0.0,0.0,73,0.00,,,0.00,VWS V13.01,2013-03-30 07:47:00,
2013-03-30 02:48:00,48.4,40.1,30.68,North,0,0.0,0.0,73,0.00,,,0.00,VWS V13.01,2013-03-30 07:48:00,
2013-03-30 02:49:00,48.4,40.1,30.68,North,0,0.0,0.0,73,0.00,,,0.00,VWS V13.01,2013-03-30 07:49:00,
2013-03-30 02:52:00,48.0,41.8,30.68,North,0,0.0,0.0,79,0.00,,,0.00,VWS V13.01,2013-03-30 07:52:00,
2013-03-30 02:53:00,47.8,41.7,30.68,North,0,0.0,0.0,79,0.00,,,0.00,VWS V13.01,2013-03-30 07:53:00,
2013-03-30 02:54:00,47.8,41.7,30.68,North,0,0.0,0.0,79,0.00,,,0.00,VWS V13.01,2013-03-30 07:54:00,
2013-03-30 02:57:00,47.7,41.5,30.65,North,0,0.0,0.0,79,0.00,,,0.00,VWS V13.01,2013-03-30 07:57:00,
2013-03-30 02:58:00,47.7,41.5,30.65,North,0,0.0,0.0,79,0.00,,,0.00,VWS V13.01,2013-03-30 07:58:00,
2013-03-30 02:59:00,47.5,41.3,30.65,North,0,0.0,0.0,79,0.00,,,0.00,VWS V13.01,2013-03-30 07:59:00,
2013-03-30 03:02:00,47.3,41.1,30.65,North,0,0.0,0.0,79,0.00,,,0.00,VWS V13.01,2013-03-30 08:02:00,
2013-03-30 03:03:00,47.3,41.1,30.65,North,0,0.0,0.0,79,0.00,,,0.00,VWS V13.01,2013-03-30 08:03:00,
2013-03-30 03:04:00,47.1,41.0,30.65,North,0,0.0,0.0,79,0.00,,,0.00,VWS V13.01,2013-03-30 08:04:00,
2013-03-30 03:07:00,47.1,41.0,30.65,North,0,0.0,0.0,79,0.00,,,0.00,VWS V13.01,2013-03-30 08:07:00,
2013-03-30 03:08:00,47.1,41.0,30.65,North,0,0.0,0.0,79,0.00,,,0.00,VWS V13.01,2013-03-30 08:08:00,
2013-03-30 03:09:00,47.1,41.0,30.65,North,0,0.0,0.0,79,0.00,,,0.00,VWS V13.01,2013-03-30 08:09:00,
2013-03-30 03:13:00,47.3,41.1,30.65,North,0,0.0,0.0,79,0.00,,,0.00,VWS V13.01,2013-03-30 08:13:00,
2013-03-30 03:14:00,47.3,41.1,30.65,North,0,0.0,0.0,79,0.00,,,0.00,VWS V13.01,2013-03-30 08:14:00,
2013-03-30 03:18:00,48.4,40.1,30.65,North,0,0.0,0.0,73,0.00,,,0.00,VWS V13.01,2013-03-30 08:18:00,
2013-03-30 03:19:00,48.7,40.5,30.65,North,0,0.0,0.0,73,0.00,,,0.00,VWS V13.01,2013-03-30 08:19:00,
2013-03-30 03:23:00,48.9,40.7,30.65,North,0,0.0,0.0,73,0.00,,,0.00,VWS V13.01,2013-03-30 08:23:00,
2013-03-30 03:24:00,48.9,40.7,30.65,North,0,0.0,0.0,73,0.00,,,0.00,VWS V13.01,2013-03-30 08:24:00,
2013-03-30 03:28:00,48.7,40.5,30.62,North,0,0.0,0.0,73,0.00,,,0.00,VWS V13.01,2013-03-30 08:28:00,
2013-03-30 03:29:00,48.7,40.5,30.62,North,0,0.0,0.0,73,0.00,,,0.00,VWS V13.01,2013-03-30 08:29:00,
2013-03-30 03:33:00,48.4,40.1,30.62,North,0,0.0,0.0,73,0.00,,,0.00,VWS V13.01,2013-03-30 08:33:00,
2013-03-30 03:34:00,48.2,40.0,30.62,North,0,0.0,0.0,73,0.00,,,0.00,VWS V13.01,2013-03-30 08:34:00,
2013-03-30 03:35:00,48.2,40.0,30.62,North,0,0.0,0.0,73,0.00,,,0.00,VWS V13.01,2013-03-30 08:35:00,
2013-03-30 03:38:00,48.7,40.5,30.62,North,0,0.0,0.0,73,0.00,,,0.00,VWS V13.01,2013-03-30 08:38:00,
2013-03-30 03:39:00,48.7,40.5,30.62,North,0,0.0,0.0,73,0.00,,,0.00,VWS V13.01,2013-03-30 08:39:00,
2013-03-30 03:40:00,48.7,40.5,30.62,North,0,0.0,0.0,73,0.00,,,0.00,VWS V13.01,2013-03-30 08:40:00,
2013-03-30 03:43:00,48.7,40.5,30.62,North,0,0.0,0.0,73,0.00,,,0.00,VWS V13.01,2013-03-30 08:43:00,
2013-03-30 03:44:00,48.7,40.5,30.62,North,0,0.0,0.0,73,0.00,,,0.00,VWS V13.01,2013-03-30 08:44:00,
2013-03-30 03:45:00,48.7,40.5,30.62,North,0,0.0,0.0,73,0.00,,,0.00,VWS V13.01,2013-03-30 08:45:00,
2013-03-30 03:48:00,48.9,40.7,30.62,North,0,0.0,0.0,73,0.00,,,0.00,VWS V13.01,2013-03-30 08:48:00,
2013-03-30 03:49:00,49.1,40.8,30.62,North,0,0.0,0.0,73,0.00,,,0.00,VWS V13.01,2013-03-30 08:49:00,
2013-03-30 03:50:00,49.1,40.8,30.62,North,0,0.0,0.0,73,0.00,,,0.00,VWS V13.01,2013-03-30 08:50:00,
2013-03-30 03:53:00,48.9,40.7,30.62,North,0,0.0,0.0,73,0.00,,,0.00,VWS V13.01,2013-03-30 08:53:00,
2013-03-30 03:54:00,48.9,40.7,30.62,North,0,0.0,0.0,73,0.00,,,0.00,VWS V13.01,2013-03-30 08:54:00,
2013-03-30 03:55:00,48.9,40.7,30.62,North,0,0.0,0.0,73,0.00,,,0.00,VWS V13.01,2013-03-30 08:55:00,
2013-03-30 03:58:00,48.9,40.7,30.65,North,0,0.0,0.0,73,0.00,,,0.00,VWS V13.01,2013-03-30 08:58:00,
2013-03-30 03:59:00,48.9,40.7,30.65,North,0,0.0,0.0,73,0.00,,,0.00,VWS V13.01,2013-03-30 08:59:00,
2013-03-30 04:00:00,49.1,40.8,30.65,North,0,0.0,0.0,73,0.00,,,0.00,VWS V13.01,2013-03-30 09:00:00,
2013-03-30 04:03:00,49.1,40.8,30.65,North,0,0.0,0.0,73,0.00,,,0.00,VWS V13.01,2013-03-30 09:03:00,
2013-03-30 04:04:00,49.1,40.8,30.65,North,0,0.0,0.0,73,0.00,,,0.00,VWS V13.01,2013-03-30 09:04:00,
2013-03-30 04:05:00,49.1,40.8,30.65,North,0,0.0,0.0,73,0.00,,,0.00,VWS V13.01,2013-03-30 09:05:00,
2013-03-30 04:08:00,49.1,40.8,30.65,North,0,0.0,0.0,73,0.00,,,0.00,VWS V13.01,2013-03-30 09:08:00,
2013-03-30 04:09:00,49.1,40.8,30.65,North,0,0.0,0.0,73,0.00,,,0.00,VWS V13.01,2013-03-30 09:09:00,
2013-03-30 04:10:00,49.1,40.8,30.65,North,0,0.0,0.0,73,0.00,,,0.00,VWS V13.01,2013-03-30 09:10:00,
2013-03-30 04:14:00,49.3,41.0,30.62,North,0,0.0,0.0,73,0.00,,,0.00,VWS V13.01,2013-03-30 09:14:00,
2013-03-30 04:15:00,49.5,41.2,30.62,North,0,0.0,0.0,73,0.00,,,0.00,VWS V13.01,2013-03-30 09:15:00,
2013-03-30 04:19:00,49.5,41.2,30.62,North,0,0.0,0.0,73,0.00,,,0.00,VWS V13.01,2013-03-30 09:19:00,
2013-03-30 04:20:00,49.6,41.3,30.62,North,0,0.0,0.0,73,0.00,,,0.00,VWS V13.01,2013-03-30 09:20:00,
2013-03-30 04:24:00,49.8,41.5,30.62,North,0,0.0,0.0,73,0.00,,,0.00,VWS V13.01,2013-03-30 09:24:00,
2013-03-30 04:25:00,49.8,41.5,30.62,North,0,0.0,0.0,73,0.00,,,0.00,VWS V13.01,2013-03-30 09:25:00,
2013-03-30 04:29:00,50.0,41.7,30.62,North,0,0.0,0.0,73,0.00,,,0.00,VWS V13.01,2013-03-30 09:29:00,
2013-03-30 04:30:00,50.0,41.7,30.62,North,0,0.0,0.0,73,0.00,,,0.00,VWS V13.01,2013-03-30 09:30:00,
2013-03-30 04:34:00,50.0,41.7,30.62,North,0,0.0,0.0,73,0.00,,,0.00,VWS V13.01,2013-03-30 09:34:00,
2013-03-30 04:35:00,50.0,41.7,30.62,North,0,0.0,0.0,73,0.00,,,0.00,VWS V13.01,2013-03-30 09:35:00,
2013-03-30 04:39:00,49.8,41.5,30.62,North,0,0.0,0.0,73,0.00,,,0.00,VWS V13.01,2013-03-30 09:39:00,
2013-03-30 04:40:00,49.8,41.5,30.62,North,0,0.0,0.0,73,0.00,,,0.00,VWS V13.01,2013-03-30 09:40:00,
2013-03-30 04:44:00,49.8,41.5,30.59,North,0,0.0,0.0,73,0.00,,,0.00,VWS V13.01,2013-03-30 09:44:00,
2013-03-30 04:45:00,49.8,41.5,30.59,North,0,0.0,0.0,73,0.00,,,0.00,VWS V13.01,2013-03-30 09:45:00,
2013-03-30 04:49:00,49.6,41.3,30.59,North,0,0.0,0.0,73,0.00,,,0.00,VWS V13.01,2013-03-30 09:49:00,
2013-03-30 04:50:00,49.6,41.3,30.59,North,0,0.0,0.0,73,0.00,,,0.00,VWS V13.01,2013-03-30 09:50:00,
2013-03-30 04:54:00,49.6,41.3,30.59,North,0,0.0,0.0,73,0.00,,,0.00,VWS V13.01,2013-03-30 09:54:00,
2013-03-30 04:55:00,49.6,41.3,30.59,North,0,0.0,0.0,73,0.00,,,0.00,VWS V13.01,2013-03-30 09:55:00,
2013-03-30 04:56:00,49.6,41.3,30.59,North,0,0.0,0.0,73,0.00,,,0.00,VWS V13.01,2013-03-30 09:56:00,
2013-03-30 04:59:00,50.0,41.7,30.62,North,0,0.0,0.0,73,0.00,,,0.00,VWS V13.01,2013-03-30 09:59:00,
2013-03-30 05:00:00,50.0,41.7,30.62,North,0,0.0,0.0,73,0.00,,,0.00,VWS V13.01,2013-03-30 10:00:00,
2013-03-30 05:01:00,50.2,41.9,30.62,North,0,0.0,0.0,73,0.00,,,0.00,VWS V13.01,2013-03-30 10:01:00,
2013-03-30 05:05:00,50.2,41.9,30.62,North,0,0.0,0.0,73,0.00,,,0.00,VWS V13.01,2013-03-30 10:05:00,
2013-03-30 05:06:00,50.4,42.0,30.62,North,0,0.0,0.0,73,0.00,,,0.00,VWS V13.01,2013-03-30 10:06:00,
2013-03-30 05:10:00,50.5,42.2,30.62,North,0,0.0,0.0,73,0.00,,,0.00,VWS V13.01,2013-03-30 10:10:00,
2013-03-30 05:11:00,50.5,42.2,30.62,North,0,0.0,0.0,73,0.00,,,0.00,VWS V13.01,2013-03-30 10:11:00,
2013-03-30 05:15:00,50.5,42.2,30.62,North,0,0.0,0.0,73,0.00,,,0.00,VWS V13.01,2013-03-30 10:15:00,
2013-03-30 05:17:00,50.5,42.2,30.62,North,0,0.0,0.0,73,0.00,,,0.00,VWS V13.01,2013-03-30 10:17:00,
2013-03-30 05:20:00,50.5,42.2,30.62,North,0,0.0,0.0,73,0.00,,,0.00,VWS V13.01,2013-03-30 10:20:00,
2013-03-30 05:22:00,50.5,42.2,30.62,North,0,0.0,0.0,73,0.00,,,0.00,VWS V13.01,2013-03-30 10:22:00,
2013-03-30 05:25:00,50.7,42.4,30.62,North,0,0.0,0.0,73,0.00,,,0.00,VWS V13.01,2013-03-30 10:25:00,
2013-03-30 05:27:00,50.7,42.4,30.62,North,0,0.0,0.0,73,0.00,,,0.00,VWS V13.01,2013-03-30 10:27:00,
2013-03-30 05:30:00,51.1,42.7,30.62,North,0,0.0,0.0,73,0.00,,,0.00,VWS V13.01,2013-03-30 10:30:00,
2013-03-30 05:32:00,51.3,42.9,30.62,North,0,0.0,0.0,73,0.00,,,0.00,VWS V13.01,2013-03-30 10:32:00,
2013-03-30 05:35:00,51.3,42.9,30.62,North,0,0.0,0.0,73,0.00,,,0.00,VWS V13.01,2013-03-30 10:35:00,
2013-03-30 05:37:00,51.3,42.9,30.62,North,0,0.0,0.0,73,0.00,,,0.00,VWS V13.01,2013-03-30 10:37:00,
2013-03-30 05:40:00,51.3,42.9,30.62,North,0,0.0,0.0,73,0.00,,,0.00,VWS V13.01,2013-03-30 10:40:00,
2013-03-30 05:42:00,51.3,42.9,30.62,North,0,0.0,0.0,73,0.00,,,0.00,VWS V13.01,2013-03-30 10:42:00,
2013-03-30 05:45:00,51.3,42.9,30.62,North,0,0.0,0.0,73,0.00,,,0.00,VWS V13.01,2013-03-30 10:45:00,
2013-03-30 05:47:00,51.3,42.9,30.62,North,0,0.0,0.0,73,0.00,,,0.00,VWS V13.01,2013-03-30 10:47:00,
2013-03-30 05:50:00,51.3,42.9,30.62,North,0,0.0,0.0,73,0.00,,,0.00,VWS V13.01,2013-03-30 10:50:00,
2013-03-30 05:52:00,51.3,42.9,30.62,North,0,0.0,0.0,73,0.00,,,0.00,VWS V13.01,2013-03-30 10:52:00,
2013-03-30 05:55:00,51.3,42.9,30.62,North,0,0.0,0.0,73,0.00,,,0.00,VWS V13.01,2013-03-30 10:55:00,
2013-03-30 05:57:00,51.3,42.9,30.59,North,0,0.0,0.0,73,0.00,,,0.00,VWS V13.01,2013-03-30 10:57:00,
2013-03-30 06:00:00,51.3,42.9,30.59,North,0,0.0,0.0,73,0.00,,,0.00,VWS V13.01,2013-03-30 11:00:00,
2013-03-30 06:03:00,51.3,42.9,30.59,North,0,0.0,0.0,73,0.00,,,0.00,VWS V13.01,2013-03-30 11:03:00,
2013-03-30 06:05:00,51.3,42.9,30.59,North,0,0.0,0.0,73,0.00,,,0.00,VWS V13.01,2013-03-30 11:05:00,
2013-03-30 06:08:00,51.3,42.9,30.59,North,0,0.0,0.0,73,0.00,,,0.00,VWS V13.01,2013-03-30 11:08:00,
2013-03-30 06:10:00,51.4,43.1,30.59,North,0,0.0,0.0,73,0.00,,,0.00,VWS V13.01,2013-03-30 11:10:00,
2013-03-30 06:13:00,51.3,42.9,30.59,North,0,0.0,0.0,73,0.00,,,0.00,VWS V13.01,2013-03-30 11:13:00,
2013-03-30 06:15:00,51.3,42.9,30.59,North,0,0.0,0.0,73,0.00,,,0.00,VWS V13.01,2013-03-30 11:15:00,
2013-03-30 06:18:00,51.3,42.9,30.59,North,0,0.0,0.0,73,0.00,,,0.00,VWS V13.01,2013-03-30 11:18:00,
2013-03-30 06:20:00,51.3,42.9,30.59,North,0,0.0,0.0,73,0.00,,,0.00,VWS V13.01,2013-03-30 11:20:00,
2013-03-30 06:21:00,51.3,42.9,30.59,North,0,0.0,0.0,73,0.00,,,0.00,VWS V13.01,2013-03-30 11:21:00,
2013-03-30 06:23:00,51.3,42.9,30.59,North,0,0.0,0.0,73,0.00,,,0.00,VWS V13.01,2013-03-30 11:23:00,
2013-03-30 06:25:00,51.4,43.1,30.59,North,0,0.0,0.0,73,0.00,,,0.00,VWS V13.01,2013-03-30 11:25:00,
2013-03-30 06:26:00,51.4,43.1,30.59,North,0,0.0,0.0,73,0.00,,,0.00,VWS V13.01,2013-03-30 11:26:00,
2013-03-30 06:28:00,51.3,42.9,30.59,North,0,0.0,0.0,73,0.00,,,0.00,VWS V13.01,2013-03-30 11:28:00,
2013-03-30 06:30:00,51.4,43.1,30.59,North,0,0.0,0.0,73,0.00,,,0.00,VWS V13.01,2013-03-30 11:30:00,
2013-03-30 06:31:00,51.4,43.1,30.59,North,0,0.0,0.0,73,0.00,,,0.00,VWS V13.01,2013-03-30 11:31:00,
2013-03-30 06:33:00,51.4,43.1,30.59,North,0,0.0,0.0,73,0.00,,,0.00,VWS V13.01,2013-03-30 11:33:00,
2013-03-30 06:35:00,51.4,43.1,30.59,North,0,0.0,0.0,73,0.00,,,0.00,VWS V13.01,2013-03-30 11:35:00,
2013-03-30 06:36:00,51.4,43.1,30.59,North,0,0.0,0.0,73,0.00,,,0.00,VWS V13.01,2013-03-30 11:36:00,
2013-03-30 06:37:00,51.4,43.1,30.59,North,0,0.0,0.0,73,0.00,,,0.00,VWS V13.01,2013-03-30 11:37:00,
2013-03-30 06:39:00,51.4,43.1,30.59,North,0,0.0,0.0,73,0.00,,,0.00,VWS V13.01,2013-03-30 11:39:00,
2013-03-30 06:40:00,51.4,43.1,30.59,North,0,0.0,0.0,73,0.00,,,0.00,VWS V13.01,2013-03-30 11:40:00,
2013-03-30 06:41:00,51.4,43.1,30.59,North,0,0.0,0.0,73,0.00,,,0.00,VWS V13.01,2013-03-30 11:41:00,
2013-03-30 06:42:00,51.3,42.9,30.59,North,0,0.0,0.0,73,0.00,,,0.00,VWS V13.01,2013-03-30 11:42:00,
2013-03-30 06:44:00,51.3,42.9,30.59,North,0,0.0,0.0,73,0.00,,,0.00,VWS V13.01,2013-03-30 11:44:00,
2013-03-30 06:45:00,51.3,42.9,30.59,North,0,0.0,0.0,73,0.00,,,0.00,VWS V13.01,2013-03-30 11:45:00,
2013-03-30 06:46:00,51.1,42.7,30.59,North,0,0.0,0.0,73,0.00,,,0.00,VWS V13.01,2013-03-30 11:46:00,
2013-03-30 06:47:00,51.1,42.7,30.59,North,0,0.0,0.0,73,0.00,,,0.00,VWS V13.01,2013-03-30 11:47:00,
2013-03-30 06:49:00,51.1,42.7,30.59,North,0,0.0,0.0,73,0.00,,,0.00,VWS V13.01,2013-03-30 11:49:00,
2013-03-30 06:50:00,51.1,42.7,30.59,North,0,0.0,0.0,73,0.00,,,0.00,VWS V13.01,2013-03-30 11:50:00,
2013-03-30 06:51:00,51.1,42.7,30.59,North,0,0.0,0.0,73,0.00,,,0.00,VWS V13.01,2013-03-30 11:51:00,
2013-03-30 06:52:00,51.1,42.7,30.59,North,0,0.0,0.0,73,0.00,,,0.00,VWS V13.01,2013-03-30 11:52:00,
2013-03-30 06:54:00,51.1,42.7,30.59,North,0,0.0,0.0,73,0.00,,,0.00,VWS V13.01,2013-03-30 11:54:00,
2013-03-30 06:55:00,51.1,42.7,30.59,North,0,0.0,0.0,73,0.00,,,0.00,VWS V13.01,2013-03-30 11:55:00,
2013-03-30 06:56:00,51.1,42.7,30.59,North,0,0.0,0.0,73,0.00,,,0.00,VWS V13.01,2013-03-30 11:56:00,
2013-03-30 06:57:00,51.3,42.9,30.59,North,0,0.0,0.0,73,0.00,,,0.00,VWS V13.01,2013-03-30 11:57:00,
2013-03-30 06:59:00,51.1,42.7,30.59,North,0,0.0,0.0,73,0.00,,,0.00,VWS V13.01,2013-03-30 11:59:00,
2013-03-30 07:00:00,51.3,42.9,30.59,North,0,0.0,0.0,73,0.00,,,0.00,VWS V13.01,2013-03-30 12:00:00,
2013-03-30 07:01:00,51.3,42.9,30.59,North,0,0.0,0.0,73,0.00,,,0.00,VWS V13.01,2013-03-30 12:01:00,
2013-03-30 07:02:00,51.3,42.9,30.59,North,0,0.0,0.0,73,0.00,,,0.00,VWS V13.01,2013-03-30 12:02:00,
2013-03-30 07:04:00,51.3,42.9,30.59,North,0,0.0,0.0,73,0.00,,,0.00,VWS V13.01,2013-03-30 12:04:00,
2013-03-30 07:05:00,51.3,42.9,30.59,North,0,0.0,0.0,73,0.00,,,0.00,VWS V13.01,2013-03-30 12:05:00,
2013-03-30 07:07:00,51.3,42.9,30.59,North,0,0.0,0.0,73,0.00,,,0.00,VWS V13.01,2013-03-30 12:07:00,
2013-03-30 07:09:00,51.3,42.9,30.59,North,0,0.0,0.0,73,0.00,,,0.00,VWS V13.01,2013-03-30 12:09:00,
2013-03-30 07:10:00,51.3,42.9,30.59,North,0,0.0,0.0,73,0.00,,,0.00,VWS V13.01,2013-03-30 12:10:00,
2013-03-30 07:12:00,51.4,43.1,30.59,North,0,0.0,0.0,73,0.00,,,0.00,VWS V13.01,2013-03-30 12:12:00,
2013-03-30 07:13:00,51.4,43.1,30.59,North,0,0.0,0.0,73,0.00,,,0.00,VWS V13.01,2013-03-30 12:13:00,
2013-03-30 07:14:00,51.4,43.1,30.59,North,0,0.0,0.0,73,0.00,,,0.00,VWS V13.01,2013-03-30 12:14:00,
2013-03-30 07:15:00,51.4,43.1,30.59,North,0,0.0,0.0,73,0.00,,,0.00,VWS V13.01,2013-03-30 12:15:00,
2013-03-30 07:17:00,51.4,43.1,30.59,North,0,0.0,0.0,73,0.00,,,0.00,VWS V13.01,2013-03-30 12:17:00,
2013-03-30 07:18:00,51.4,43.1,30.59,North,0,0.0,0.0,73,0.00,,,0.00,VWS V13.01,2013-03-30 12:18:00,
2013-03-30 07:19:00,51.4,43.1,30.59,North,0,0.0,0.0,73,0.00,,,0.00,VWS V13.01,2013-03-30 12:19:00,
2013-03-30 07:20:00,51.4,43.1,30.59,North,0,0.0,0.0,73,0.00,,,0.00,VWS V13.01,2013-03-30 12:20:00,
2013-03-30 07:22:00,51.4,43.1,30.59,North,0,0.0,0.0,73,0.00,,,0.00,VWS V13.01,2013-03-30 12:22:00,
2013-03-30 07:23:00,51.4,43.1,30.59,North,0,0.0,0.0,73,0.00,,,0.00,VWS V13.01,2013-03-30 12:23:00,
2013-03-30 07:24:00,51.4,43.1,30.59,North,0,0.0,0.0,73,0.00,,,0.00,VWS V13.01,2013-03-30 12:24:00,
2013-03-30 07:25:00,51.4,43.1,30.59,North,0,0.0,0.0,73,0.00,,,0.00,VWS V13.01,2013-03-30 12:25:00,
2013-03-30 07:27:00,51.4,43.1,30.59,North,0,0.0,0.0,73,0.00,,,0.00,VWS V13.01,2013-03-30 12:27:00,
2013-03-30 07:29:00,51.4,43.1,30.59,North,0,0.0,0.0,73,0.00,,,0.00,VWS V13.01,2013-03-30 12:29:00,
2013-03-30 07:30:00,51.4,43.1,30.59,North,0,0.0,0.0,73,0.00,,,0.00,VWS V13.01,2013-03-30 12:30:00,
2013-03-30 07:32:00,51.4,43.1,30.59,North,0,0.0,0.0,73,0.00,,,0.00,VWS V13.01,2013-03-30 12:32:00,
2013-03-30 07:34:00,51.3,42.9,30.59,North,0,0.0,0.0,73,0.00,,,0.00,VWS V13.01,2013-03-30 12:34:00,
2013-03-30 07:35:00,51.4,43.1,30.59,North,0,0.0,0.0,73,0.00,,,0.00,VWS V13.01,2013-03-30 12:35:00,
2013-03-30 07:38:00,51.3,42.9,30.59,North,0,0.0,0.0,73,0.00,,,0.00,VWS V13.01,2013-03-30 12:38:00,
2013-03-30 07:39:00,51.1,42.7,30.59,North,0,0.0,0.0,73,0.00,,,0.00,VWS V13.01,2013-03-30 12:39:00,
2013-03-30 07:40:00,51.1,42.7,30.59,North,0,0.0,0.0,73,0.00,,,0.00,VWS V13.01,2013-03-30 12:40:00,
2013-03-30 07:43:00,50.9,48.4,30.59,North,0,0.0,0.0,91,0.00,,,0.00,VWS V13.01,2013-03-30 12:43:00,
2013-03-30 07:44:00,50.5,48.0,30.59,North,0,0.0,0.0,91,0.00,,,0.00,VWS V13.01,2013-03-30 12:44:00,
2013-03-30 07:45:00,50.4,47.8,30.59,North,0,0.0,0.0,91,0.00,,,0.00,VWS V13.01,2013-03-30 12:45:00,
2013-03-30 07:48:00,50.2,47.7,30.59,North,0,0.0,0.0,91,0.00,,,0.00,VWS V13.01,2013-03-30 12:48:00,
2013-03-30 07:50:00,50.2,47.7,30.59,North,0,0.0,0.0,91,0.00,,,0.00,VWS V13.01,2013-03-30 12:50:00,
2013-03-30 07:53:00,50.2,47.7,30.59,North,0,0.0,0.0,91,0.00,,,0.00,VWS V13.01,2013-03-30 12:53:00,
2013-03-30 07:55:00,50.0,47.5,30.59,North,0,0.0,0.0,91,0.00,,,0.00,VWS V13.01,2013-03-30 12:55:00,
2013-03-30 07:58:00,50.0,47.5,30.59,North,0,0.0,0.0,91,0.00,,,0.00,VWS V13.01,2013-03-30 12:58:00,
2013-03-30 08:00:00,50.0,50.0,30.59,North,0,0.0,0.0,100,0.00,,,0.00,VWS V13.01,2013-03-30 13:00:00,
2013-03-30 08:03:00,50.0,50.0,30.59,North,0,0.0,0.0,100,0.00,,,0.00,VWS V13.01,2013-03-30 13:03:00,
2013-03-30 08:05:00,50.0,50.0,30.59,North,0,0.0,0.0,100,0.00,,,0.00,VWS V13.01,2013-03-30 13:05:00,
2013-03-30 08:06:00,50.0,50.0,30.59,North,0,0.0,0.0,100,0.00,,,0.00,VWS V13.01,2013-03-30 13:06:00,
2013-03-30 08:08:00,49.8,49.8,30.59,North,0,0.0,0.0,100,0.00,,,0.00,VWS V13.01,2013-03-30 13:08:00,
2013-03-30 08:09:00,49.8,49.8,30.59,North,0,0.0,0.0,100,0.00,,,0.00,VWS V13.01,2013-03-30 13:09:00,
2013-03-30 08:11:00,49.8,49.8,30.59,North,0,0.0,0.0,100,0.00,,,0.00,VWS V13.01,2013-03-30 13:11:00,
2013-03-30 08:13:00,49.8,49.8,30.56,North,0,0.0,0.0,100,0.00,,,0.00,VWS V13.01,2013-03-30 13:13:00,
2013-03-30 08:14:00,49.8,49.8,30.56,North,0,0.0,0.0,100,0.00,,,0.00,VWS V13.01,2013-03-30 13:14:00,
2013-03-30 08:16:00,49.8,49.8,30.56,North,0,0.0,0.0,100,0.00,,,0.00,VWS V13.01,2013-03-30 13:16:00,
2013-03-30 08:18:00,49.8,49.8,30.56,North,0,0.0,0.0,100,0.00,,,0.00,VWS V13.01,2013-03-30 13:18:00,
2013-03-30 08:19:00,49.6,49.6,30.56,North,0,0.0,0.0,100,0.00,,,0.00,VWS V13.01,2013-03-30 13:19:00,
2013-03-30 08:21:00,49.8,49.8,30.56,North,0,0.0,0.0,100,0.00,,,0.00,VWS V13.01,2013-03-30 13:21:00,
2013-03-30 08:23:00,49.8,49.8,30.56,North,0,0.0,0.0,100,0.00,,,0.00,VWS V13.01,2013-03-30 13:23:00,
2013-03-30 08:24:00,49.8,49.8,30.56,North,0,0.0,0.0,100,0.00,,,0.00,VWS V13.01,2013-03-30 13:24:00,
2013-03-30 08:26:00,49.8,49.8,30.56,North,0,0.0,0.0,100,0.00,,,0.00,VWS V13.01,2013-03-30 13:26:00,
2013-03-30 08:28:00,50.0,50.0,30.59,North,0,0.0,0.0,100,0.00,,,0.00,VWS V13.01,2013-03-30 13:28:00,
2013-03-30 08:29:00,50.0,50.0,30.59,North,0,0.0,0.0,100,0.00,,,0.00,VWS V13.01,2013-03-30 13:29:00,
2013-03-30 08:31:00,50.0,50.0,30.59,North,0,0.0,0.0,100,0.00,,,0.00,VWS V13.01,2013-03-30 13:31:00,
2013-03-30 08:33:00,50.0,50.0,30.59,North,0,0.0,0.0,100,0.00,,,0.00,VWS V13.01,2013-03-30 13:33:00,
2013-03-30 08:34:00,50.0,50.0,30.59,North,0,0.0,0.0,100,0.00,,,0.00,VWS V13.01,2013-03-30 13:34:00,
2013-03-30 08:36:00,50.0,50.0,30.59,North,0,0.0,0.0,100,0.00,,,0.00,VWS V13.01,2013-03-30 13:36:00,
2013-03-30 08:38:00,50.0,50.0,30.59,North,0,0.0,0.0,100,0.00,,,0.00,VWS V13.01,2013-03-30 13:38:00,
2013-03-30 08:39:00,50.0,50.0,30.59,North,0,0.0,0.0,100,0.00,,,0.00,VWS V13.01,2013-03-30 13:39:00,
2013-03-30 08:41:00,49.8,49.8,30.59,North,0,0.0,0.0,100,0.00,,,0.00,VWS V13.01,2013-03-30 13:41:00,
2013-03-30 08:43:00,49.8,49.8,30.56,North,0,0.0,0.0,100,0.00,,,0.00,VWS V13.01,2013-03-30 13:43:00,
2013-03-30 08:44:00,49.8,49.8,30.56,North,0,0.0,0.0,100,0.00,,,0.00,VWS V13.01,2013-03-30 13:44:00,
2013-03-30 08:46:00,50.0,50.0,30.56,North,0,0.0,0.0,100,0.00,,,0.00,VWS V13.01,2013-03-30 13:46:00,
2013-03-30 08:48:00,49.8,49.8,30.56,North,0,0.0,0.0,100,0.00,,,0.00,VWS V13.01,2013-03-30 13:48:00,
2013-03-30 08:49:00,49.8,49.8,30.56,North,0,0.0,0.0,100,0.00,,,0.00,VWS V13.01,2013-03-30 13:49:00,
2013-03-30 08:51:00,49.8,49.8,30.56,North,0,0.0,0.0,100,0.00,,,0.00,VWS V13.01,2013-03-30 13:51:00,
2013-03-30 08:52:00,49.8,49.8,30.56,North,0,0.0,0.0,100,0.00,,,0.00,VWS V13.01,2013-03-30 13:52:00,
2013-03-30 08:53:00,49.6,49.6,30.56,North,0,0.0,0.0,100,0.00,,,0.00,VWS V13.01,2013-03-30 13:53:00,
2013-03-30 08:54:00,49.6,49.6,30.56,North,0,0.0,0.0,100,0.00,,,0.00,VWS V13.01,2013-03-30 13:54:00,
2013-03-30 08:56:00,49.8,49.8,30.56,North,0,0.0,0.0,100,0.00,,,0.00,VWS V13.01,2013-03-30 13:56:00,
2013-03-30 08:57:00,49.8,49.8,30.56,North,0,0.0,0.0,100,0.00,,,0.00,VWS V13.01,2013-03-30 13:57:00,
2013-03-30 08:58:00,49.8,49.8,30.56,North,0,0.0,0.0,100,0.00,,,0.00,VWS V13.01,2013-03-30 13:58:00,
2013-03-30 08:59:00,49.8,49.8,30.56,North,0,0.0,0.0,100,0.00,,,0.00,VWS V13.01,2013-03-30 13:59:00,
2013-03-30 09:02:00,49.8,49.8,30.56,North,0,0.0,0.0,100,0.00,,,0.00,VWS V13.01,2013-03-30 14:02:00,
2013-03-30 09:03:00,49.8,49.8,30.56,North,0,0.0,0.0,100,0.00,,,0.00,VWS V13.01,2013-03-30 14:03:00,
2013-03-30 09:04:00,49.8,49.8,30.56,North,0,0.0,0.0,100,0.00,,,0.00,VWS V13.01,2013-03-30 14:04:00,
2013-03-30 09:07:00,49.6,49.6,30.56,North,0,0.0,0.0,100,0.00,,,0.00,VWS V13.01,2013-03-30 14:07:00,
2013-03-30 09:08:00,49.6,49.6,30.56,North,0,0.0,0.0,100,0.00,,,0.00,VWS V13.01,2013-03-30 14:08:00,
2013-03-30 09:09:00,49.6,49.6,30.56,North,0,0.0,0.0,100,0.00,,,0.00,VWS V13.01,2013-03-30 14:09:00,
2013-03-30 09:12:00,49.6,49.6,30.56,North,0,0.0,0.0,100,0.00,,,0.00,VWS V13.01,2013-03-30 14:12:00,
2013-03-30 09:14:00,49.6,49.6,30.56,North,0,0.0,0.0,100,0.00,,,0.00,VWS V13.01,2013-03-30 14:14:00,
2013-03-30 09:17:00,49.6,49.6,30.56,North,0,0.0,0.0,100,0.00,,,0.00,VWS V13.01,2013-03-30 14:17:00,
2013-03-30 09:19:00,49.8,49.8,30.56,North,0,0.0,0.0,100,0.00,,,0.00,VWS V13.01,2013-03-30 14:19:00,
2013-03-30 09:22:00,49.8,49.8,30.56,North,0,0.0,0.0,100,0.00,,,0.00,VWS V13.01,2013-03-30 14:22:00,
2013-03-30 09:24:00,49.8,49.8,30.56,North,0,0.0,0.0,100,0.00,,,0.00,VWS V13.01,2013-03-30 14:24:00,
2013-03-30 09:27:00,49.8,49.8,30.53,North,0,0.0,0.0,100,0.00,,,0.00,VWS V13.01,2013-03-30 14:27:00,
2013-03-30 09:29:00,49.8,49.8,30.53,North,0,0.0,0.0,100,0.00,,,0.00,VWS V13.01,2013-03-30 14:29:00,
2013-03-30 09:32:00,49.8,49.8,30.53,North,0,0.0,0.0,100,0.00,,,0.00,VWS V13.01,2013-03-30 14:32:00,
2013-03-30 09:34:00,49.8,49.8,30.53,North,0,0.0,0.0,100,0.00,,,0.00,VWS V13.01,2013-03-30 14:34:00,
2013-03-30 09:37:00,49.8,49.8,30.53,North,0,0.0,0.0,100,0.00,,,0.00,VWS V13.01,2013-03-30 14:37:00,
2013-03-30 09:39:00,49.8,49.8,30.53,North,0,0.0,0.0,100,0.00,,,0.00,VWS V13.01,2013-03-30 14:39:00,
2013-03-30 09:42:00,49.8,49.8,30.53,North,0,0.0,0.0,100,0.00,,,0.00,VWS V13.01,2013-03-30 14:42:00,
2013-03-30 09:44:00,49.8,49.8,30.53,North,0,0.0,0.0,100,0.00,,,0.00,VWS V13.01,2013-03-30 14:44:00,
2013-03-30 09:47:00,49.8,49.8,30.53,North,0,0.0,0.0,100,0.00,,,0.00,VWS V13.01,2013-03-30 14:47:00,
2013-03-30 09:48:00,49.8,49.8,30.53,North,0,0.0,0.0,100,0.00,,,0.00,VWS V13.01,2013-03-30 14:48:00,
2013-03-30 09:49:00,50.0,50.0,30.53,North,0,0.0,0.0,100,0.00,,,0.00,VWS V13.01,2013-03-30 14:49:00,
2013-03-30 09:53:00,50.2,50.2,30.53,North,0,0.0,0.0,100,0.00,,,0.00,VWS V13.01,2013-03-30 14:53:00,
2013-03-30 09:54:00,50.4,50.4,30.53,North,0,0.0,0.0,100,0.00,,,0.00,VWS V13.01,2013-03-30 14:54:00,
2013-03-30 09:58:00,50.7,50.7,30.53,North,0,0.0,0.0,100,0.00,,,0.00,VWS V13.01,2013-03-30 14:58:00,
2013-03-30 09:59:00,50.7,50.7,30.53,North,0,0.0,0.0,100,0.00,,,0.00,VWS V13.01,2013-03-30 14:59:00,
2013-03-30 10:00:00,50.7,50.7,30.53,North,0,0.0,0.0,100,0.00,,,0.00,VWS V13.01,2013-03-30 15:00:00,
2013-03-30 10:03:00,50.9,50.9,30.53,North,0,0.0,0.0,100,0.00,,,0.00,VWS V13.01,2013-03-30 15:03:00,
2013-03-30 10:04:00,50.9,50.9,30.53,North,0,0.0,0.0,100,0.00,,,0.00,VWS V13.01,2013-03-30 15:04:00,
2013-03-30 10:05:00,50.9,50.9,30.53,North,0,0.0,0.0,100,0.00,,,0.00,VWS V13.01,2013-03-30 15:05:00,
2013-03-30 10:08:00,50.9,50.9,30.53,North,0,0.0,0.0,100,0.00,,,0.00,VWS V13.01,2013-03-30 15:08:00,
2013-03-30 10:09:00,50.9,50.9,30.53,North,0,0.0,0.0,100,0.00,,,0.00,VWS V13.01,2013-03-30 15:09:00,
2013-03-30 10:13:00,50.9,50.9,30.53,North,0,0.0,0.0,100,0.00,,,0.00,VWS V13.01,2013-03-30 15:13:00,
2013-03-30 10:14:00,51.1,51.1,30.53,North,0,0.0,0.0,100,0.00,,,0.00,VWS V13.01,2013-03-30 15:14:00,
2013-03-30 10:15:00,51.1,51.1,30.53,North,0,0.0,0.0,100,0.00,,,0.00,VWS V13.01,2013-03-30 15:15:00,
2013-03-30 10:18:00,51.1,51.1,30.53,North,0,0.0,0.0,100,0.00,,,0.00,VWS V13.01,2013-03-30 15:18:00,
2013-03-30 10:19:00,50.9,50.9,30.53,North,0,0.0,0.0,100,0.00,,,0.00,VWS V13.01,2013-03-30 15:19:00,
2013-03-30 10:20:00,51.1,51.1,30.53,North,0,0.0,0.0,100,0.00,,,0.00,VWS V13.01,2013-03-30 15:20:00,
2013-03-30 10:23:00,51.1,51.1,30.53,North,0,0.0,0.0,100,0.00,,,0.00,VWS V13.01,2013-03-30 15:23:00,
2013-03-30 10:24:00,51.1,51.1,30.53,North,0,0.0,0.0,100,0.00,,,0.00,VWS V13.01,2013-03-30 15:24:00,
2013-03-30 10:25:00,51.1,51.1,30.53,North,0,0.0,0.0,100,0.00,,,0.00,VWS V13.01,2013-03-30 15:25:00,
2013-03-30 10:28:00,51.1,51.1,30.53,North,0,0.0,0.0,100,0.00,,,0.00,VWS V13.01,2013-03-30 15:28:00,
2013-03-30 10:29:00,51.1,51.1,30.53,North,0,0.0,0.0,100,0.00,,,0.00,VWS V13.01,2013-03-30 15:29:00,
2013-03-30 10:30:00,50.9,50.9,30.53,North,0,0.0,0.0,100,0.00,,,0.00,VWS V13.01,2013-03-30 15:30:00,
2013-03-30 10:33:00,51.1,51.1,30.53,North,0,0.0,0.0,100,0.00,,,0.00,VWS V13.01,2013-03-30 15:33:00,
2013-03-30 10:34:00,51.1,51.1,30.53,North,0,0.0,0.0,100,0.00,,,0.00,VWS V13.01,2013-03-30 15:34:00,
2013-03-30 10:35:00,51.1,51.1,30.53,North,0,0.0,0.0,100,0.00,,,0.00,VWS V13.01,2013-03-30 15:35:00,
2013-03-30 10:38:00,51.1,51.1,30.53,North,0,0.0,0.0,100,0.00,,,0.00,VWS V13.01,2013-03-30 15:38:00,
2013-03-30 10:39:00,51.1,51.1,30.53,North,0,0.0,0.0,100,0.00,,,0.00,VWS V13.01,2013-03-30 15:39:00,
2013-03-30 10:40:00,51.1,51.1,30.53,North,0,0.0,0.0,100,0.00,,,0.00,VWS V13.01,2013-03-30 15:40:00,
2013-03-30 10:43:00,51.1,51.1,30.53,North,0,0.0,0.0,100,0.00,,,0.00,VWS V13.01,2013-03-30 15:43:00,
2013-03-30 10:44:00,51.1,51.1,30.53,North,0,0.0,0.0,100,0.00,,,0.00,VWS V13.01,2013-03-30 15:44:00,
2013-03-30 10:45:00,51.1,51.1,30.53,North,0,0.0,0.0,100,0.00,,,0.00,VWS V13.01,2013-03-30 15:45:00,
2013-03-30 10:48:00,51.1,51.1,30.53,North,0,0.0,0.0,100,0.00,,,0.00,VWS V13.01,2013-03-30 15:48:00,
2013-03-30 10:49:00,51.1,51.1,30.53,North,0,0.0,0.0,100,0.00,,,0.00,VWS V13.01,2013-03-30 15:49:00,
2013-03-30 10:50:00,51.3,51.3,30.53,North,0,0.0,0.0,100,0.00,,,0.00,VWS V13.01,2013-03-30 15:50:00,
2013-03-30 10:53:00,51.3,51.3,30.53,North,0,0.0,0.0,100,0.00,,,0.00,VWS V13.01,2013-03-30 15:53:00,
2013-03-30 10:54:00,51.3,51.3,30.53,North,0,0.0,0.0,100,0.00,,,0.00,VWS V13.01,2013-03-30 15:54:00,
2013-03-30 10:55:00,51.3,51.3,30.53,North,0,0.0,0.0,100,0.00,,,0.00,VWS V13.01,2013-03-30 15:55:00,
2013-03-30 10:58:00,51.3,51.3,30.53,North,0,0.0,0.0,100,0.00,,,0.00,VWS V13.01,2013-03-30 15:58:00,
2013-03-30 10:59:00,51.3,51.3,30.53,North,0,0.0,0.0,100,0.00,,,0.00,VWS V13.01,2013-03-30 15:59:00,
2013-03-30 11:00:00,51.4,51.4,30.53,North,0,0.0,0.0,100,0.00,,,0.00,VWS V13.01,2013-03-30 16:00:00,
2013-03-30 11:03:00,51.4,51.4,30.53,North,0,0.0,0.0,100,0.00,,,0.00,VWS V13.01,2013-03-30 16:03:00,
2013-03-30 11:04:00,51.4,51.4,30.53,North,0,0.0,0.0,100,0.00,,,0.00,VWS V13.01,2013-03-30 16:04:00,
2013-03-30 11:05:00,51.4,51.4,30.53,North,0,0.0,0.0,100,0.00,,,0.00,VWS V13.01,2013-03-30 16:05:00,
2013-03-30 11:09:00,51.6,51.6,30.53,North,0,0.0,0.0,100,0.00,,,0.00,VWS V13.01,2013-03-30 16:09:00,
2013-03-30 11:10:00,51.6,51.6,30.53,North,0,0.0,0.0,100,0.00,,,0.00,VWS V13.01,2013-03-30 16:10:00,
2013-03-30 11:14:00,51.6,51.6,30.53,North,0,0.0,0.0,100,0.00,,,0.00,VWS V13.01,2013-03-30 16:14:00,
2013-03-30 11:15:00,51.6,51.6,30.53,North,0,0.0,0.0,100,0.00,,,0.00,VWS V13.01,2013-03-30 16:15:00,
2013-03-30 11:19:00,51.6,51.6,30.53,North,0,0.0,0.0,100,0.00,,,0.00,VWS V13.01,2013-03-30 16:19:00,
2013-03-30 11:20:00,51.8,51.8,30.53,North,0,0.0,0.0,100,0.00,,,0.00,VWS V13.01,2013-03-30 16:20:00,
2013-03-30 11:24:00,51.8,51.8,30.53,North,0,0.0,0.0,100,0.00,,,0.00,VWS V13.01,2013-03-30 16:24:00,
2013-03-30 11:25:00,51.8,51.8,30.53,North,0,0.0,0.0,100,0.00,,,0.00,VWS V13.01,2013-03-30 16:25:00,
2013-03-30 11:29:00,52.0,52.0,30.56,North,0,0.0,0.0,100,0.00,,,0.00,VWS V13.01,2013-03-30 16:29:00,
2013-03-30 11:30:00,52.0,52.0,30.56,North,0,0.0,0.0,100,0.00,,,0.00,VWS V13.01,2013-03-30 16:30:00,
2013-03-30 11:34:00,52.0,52.0,30.56,North,0,0.0,0.0,100,0.00,,,0.00,VWS V13.01,2013-03-30 16:34:00,
2013-03-30 11:35:00,52.0,52.0,30.56,North,0,0.0,0.0,100,0.00,,,0.00,VWS V13.01,2013-03-30 16:35:00,
2013-03-30 11:39:00,52.0,52.0,30.56,North,0,0.0,0.0,100,0.00,,,0.00,VWS V13.01,2013-03-30 16:39:00,
2013-03-30 11:40:00,52.0,52.0,30.56,North,0,0.0,0.0,100,0.00,,,0.00,VWS V13.01,2013-03-30 16:40:00,
2013-03-30 11:44:00,52.0,52.0,30.56,North,0,0.0,0.0,100,0.00,,,0.00,VWS V13.01,2013-03-30 16:44:00,
2013-03-30 11:45:00,52.2,52.2,30.56,North,0,0.0,0.0,100,0.00,,,0.00,VWS V13.01,2013-03-30 16:45:00,
2013-03-30 11:49:00,52.2,52.2,30.56,North,0,0.0,0.0,100,0.00,,,0.00,VWS V13.01,2013-03-30 16:49:00,
2013-03-30 11:50:00,52.2,52.2,30.56,North,0,0.0,0.0,100,0.00,,,0.00,VWS V13.01,2013-03-30 16:50:00,
2013-03-30 11:54:00,52.2,52.2,30.56,North,0,0.0,0.0,100,0.00,,,0.00,VWS V13.01,2013-03-30 16:54:00,
2013-03-30 11:55:00,52.3,52.3,30.56,North,0,0.0,0.0,100,0.00,,,0.00,VWS V13.01,2013-03-30 16:55:00,
2013-03-30 11:59:00,52.5,52.5,30.56,North,0,0.0,0.0,100,0.00,,,0.00,VWS V13.01,2013-03-30 16:59:00,
2013-03-30 12:00:00,52.5,52.5,30.56,North,0,0.0,0.0,100,0.00,,,0.00,VWS V13.01,2013-03-30 17:00:00,
2013-03-30 12:01:00,52.5,52.5,30.56,North,0,0.0,0.0,100,0.00,,,0.00,VWS V13.01,2013-03-30 17:01:00,
2013-03-30 12:04:00,52.7,52.7,30.56,North,0,0.0,0.0,100,0.00,,,0.00,VWS V13.01,2013-03-30 17:04:00,
2013-03-30 12:05:00,52.9,52.9,30.56,North,0,0.0,0.0,100,0.00,,,0.00,VWS V13.01,2013-03-30 17:05:00,
2013-03-30 12:06:00,52.9,52.9,30.56,North,0,0.0,0.0,100,0.00,,,0.00,VWS V13.01,2013-03-30 17:06:00,
2013-03-30 12:09:00,53.1,53.1,30.56,North,0,0.0,0.0,100,0.00,,,0.00,VWS V13.01,2013-03-30 17:09:00,
2013-03-30 12:10:00,53.1,53.1,30.56,North,0,0.0,0.0,100,0.00,,,0.00,VWS V13.01,2013-03-30 17:10:00,
2013-03-30 12:12:00,53.1,53.1,30.56,North,0,0.0,0.0,100,0.00,,,0.00,VWS V13.01,2013-03-30 17:12:00,
2013-03-30 12:14:00,53.1,53.1,30.56,North,0,0.0,0.0,100,0.00,,,0.00,VWS V13.01,2013-03-30 17:14:00,
2013-03-30 12:15:00,53.1,53.1,30.56,North,0,0.0,0.0,100,0.00,,,0.00,VWS V13.01,2013-03-30 17:15:00,
2013-03-30 12:17:00,53.2,53.2,30.56,North,0,0.0,0.0,100,0.00,,,0.00,VWS V13.01,2013-03-30 17:17:00,
2013-03-30 12:19:00,53.2,53.2,30.56,North,0,0.0,0.0,100,0.00,,,0.00,VWS V13.01,2013-03-30 17:19:00,
2013-03-30 12:20:00,53.4,53.4,30.56,North,0,0.0,0.0,100,0.00,,,0.00,VWS V13.01,2013-03-30 17:20:00,
2013-03-30 12:22:00,53.2,53.2,30.56,North,0,0.0,0.0,100,0.00,,,0.00,VWS V13.01,2013-03-30 17:22:00,
2013-03-30 12:24:00,53.2,53.2,30.56,North,0,0.0,0.0,100,0.00,,,0.00,VWS V13.01,2013-03-30 17:24:00,
2013-03-30 12:25:00,53.2,53.2,30.56,North,0,0.0,0.0,100,0.00,,,0.00,VWS V13.01,2013-03-30 17:25:00,
2013-03-30 12:27:00,53.4,53.4,30.56,North,0,0.0,0.0,100,0.00,,,0.00,VWS V13.01,2013-03-30 17:27:00,
2013-03-30 12:29:00,53.4,53.4,30.56,North,0,0.0,0.0,100,0.00,,,0.00,VWS V13.01,2013-03-30 17:29:00,
2013-03-30 12:30:00,53.6,53.6,30.56,North,0,0.0,0.0,100,0.00,,,0.00,VWS V13.01,2013-03-30 17:30:00,
2013-03-30 12:32:00,53.8,53.8,30.56,North,0,0.0,0.0,100,0.00,,,0.00,VWS V13.01,2013-03-30 17:32:00,
2013-03-30 12:34:00,53.6,53.6,30.56,North,0,0.0,0.0,100,0.00,,,0.00,VWS V13.01,2013-03-30 17:34:00,
2013-03-30 12:35:00,53.8,53.8,30.56,North,0,0.0,0.0,100,0.00,,,0.00,VWS V13.01,2013-03-30 17:35:00,
2013-03-30 12:37:00,54.0,54.0,30.56,North,0,0.0,0.0,100,0.00,,,0.00,VWS V13.01,2013-03-30 17:37:00,
2013-03-30 12:39:00,53.8,53.8,30.56,North,0,0.0,0.0,100,0.00,,,0.00,VWS V13.01,2013-03-30 17:39:00,
2013-03-30 12:40:00,53.8,53.8,30.56,North,0,0.0,0.0,100,0.00,,,0.00,VWS V13.01,2013-03-30 17:40:00,
2013-03-30 12:42:00,53.8,53.8,30.56,North,0,0.0,0.0,100,0.00,,,0.00,VWS V13.01,2013-03-30 17:42:00,
2013-03-30 12:44:00,53.8,53.8,30.56,North,0,0.0,0.0,100,0.00,,,0.00,VWS V13.01,2013-03-30 17:44:00,
2013-03-30 12:45:00,53.8,53.8,30.56,North,0,0.0,0.0,100,0.00,,,0.00,VWS V13.01,2013-03-30 17:45:00,
2013-03-30 12:47:00,54.0,54.0,30.56,North,0,0.0,0.0,100,0.00,,,0.00,VWS V13.01,2013-03-30 17:47:00,
2013-03-30 12:49:00,54.0,54.0,30.56,North,0,0.0,0.0,100,0.00,,,0.00,VWS V13.01,2013-03-30 17:49:00,
2013-03-30 12:50:00,54.0,54.0,30.56,North,0,0.0,0.0,100,0.00,,,0.00,VWS V13.01,2013-03-30 17:50:00,
2013-03-30 12:53:00,54.0,54.0,30.56,North,0,0.0,0.0,100,0.00,,,0.00,VWS V13.01,2013-03-30 17:53:00,
2013-03-30 12:54:00,54.0,54.0,30.56,North,0,0.0,0.0,100,0.00,,,0.00,VWS V13.01,2013-03-30 17:54:00,
2013-03-30 12:55:00,54.0,54.0,30.56,North,0,0.0,0.0,100,0.00,,,0.00,VWS V13.01,2013-03-30 17:55:00,
2013-03-30 12:58:00,53.8,53.8,30.56,North,0,0.0,0.0,100,0.00,,,0.00,VWS V13.01,2013-03-30 17:58:00,
2013-03-30 12:59:00,53.6,53.6,30.56,North,0,0.0,0.0,100,0.00,,,0.00,VWS V13.01,2013-03-30 17:59:00,
2013-03-30 13:00:00,53.6,53.6,30.56,North,0,0.0,0.0,100,0.00,,,0.00,VWS V13.01,2013-03-30 18:00:00,
2013-03-30 13:03:00,53.2,53.2,30.56,North,0,0.0,0.0,100,0.00,,,0.00,VWS V13.01,2013-03-30 18:03:00,
2013-03-30 13:04:00,53.2,53.2,30.56,North,0,0.0,0.0,100,0.00,,,0.00,VWS V13.01,2013-03-30 18:04:00,
2013-03-30 13:05:00,53.2,53.2,30.56,North,0,0.0,0.0,100,0.00,,,0.00,VWS V13.01,2013-03-30 18:05:00,
2013-03-30 13:08:00,53.1,53.1,30.56,North,0,0.0,0.0,100,0.00,,,0.00,VWS V13.01,2013-03-30 18:08:00,
2013-03-30 13:09:00,53.1,53.1,30.56,North,0,0.0,0.0,100,0.00,,,0.00,VWS V13.01,2013-03-30 18:09:00,
2013-03-30 13:10:00,53.1,53.1,30.56,North,0,0.0,0.0,100,0.00,,,0.00,VWS V13.01,2013-03-30 18:10:00,
2013-03-30 13:13:00,53.1,53.1,30.53,North,0,0.0,0.0,100,0.00,,,0.00,VWS V13.01,2013-03-30 18:13:00,
2013-03-30 13:14:00,53.1,53.1,30.53,North,0,0.0,0.0,100,0.00,,,0.00,VWS V13.01,2013-03-30 18:14:00,
2013-03-30 13:15:00,53.1,53.1,30.53,North,0,0.0,0.0,100,0.00,,,0.00,VWS V13.01,2013-03-30 18:15:00,
2013-03-30 13:18:00,52.9,52.9,30.53,North,0,0.0,0.0,100,0.00,,,0.00,VWS V13.01,2013-03-30 18:18:00,
2013-03-30 13:19:00,52.9,52.9,30.53,North,0,0.0,0.0,100,0.00,,,0.00,VWS V13.01,2013-03-30 18:19:00,
2013-03-30 13:20:00,52.9,52.9,30.53,North,0,0.0,0.0,100,0.00,,,0.00,VWS V13.01,2013-03-30 18:20:00,
2013-03-30 13:23:00,52.9,52.9,30.53,North,0,0.0,0.0,100,0.00,,,0.00,VWS V13.01,2013-03-30 18:23:00,
2013-03-30 13:24:00,52.9,52.9,30.53,North,0,0.0,0.0,100,0.00,,,0.00,VWS V13.01,2013-03-30 18:24:00,
2013-03-30 13:25:00,53.1,53.1,30.53,North,0,0.0,0.0,100,0.00,,,0.00,VWS V13.01,2013-03-30 18:25:00,
2013-03-30 13:28:00,53.1,53.1,30.53,North,0,0.0,0.0,100,0.00,,,0.00,VWS V13.01,2013-03-30 18:28:00,
2013-03-30 13:30:00,53.1,53.1,30.53,North,0,0.0,0.0,100,0.00,,,0.00,VWS V13.01,2013-03-30 18:30:00,
2013-03-30 13:33:00,53.1,53.1,30.53,North,0,0.0,0.0,100,0.00,,,0.00,VWS V13.01,2013-03-30 18:33:00,
2013-03-30 13:35:00,53.1,53.1,30.53,North,0,0.0,0.0,100,0.00,,,0.00,VWS V13.01,2013-03-30 18:35:00,
2013-03-30 13:38:00,53.1,53.1,30.53,North,0,0.0,0.0,100,0.00,,,0.00,VWS V13.01,2013-03-30 18:38:00,
2013-03-30 13:40:00,53.1,53.1,30.53,North,0,0.0,0.0,100,0.00,,,0.00,VWS V13.01,2013-03-30 18:40:00,
2013-03-30 13:43:00,53.2,53.2,30.53,North,0,0.0,0.0,100,0.00,,,0.00,VWS V13.01,2013-03-30 18:43:00,
2013-03-30 13:45:00,53.2,53.2,30.53,North,0,0.0,0.0,100,0.00,,,0.00,VWS V13.01,2013-03-30 18:45:00,
2013-03-30 13:48:00,53.8,53.8,30.53,North,0,0.0,0.0,100,0.00,,,0.00,VWS V13.01,2013-03-30 18:48:00,
2013-03-30 13:50:00,54.0,54.0,30.53,North,0,0.0,0.0,100,0.00,,,0.00,VWS V13.01,2013-03-30 18:50:00,
2013-03-30 13:53:00,54.1,54.1,30.53,North,0,0.0,0.0,100,0.00,,,0.00,VWS V13.01,2013-03-30 18:53:00,
2013-03-30 13:55:00,54.0,54.0,30.53,North,0,0.0,0.0,100,0.00,,,0.00,VWS V13.01,2013-03-30 18:55:00,
2013-03-30 13:58:00,54.3,54.3,30.53,North,0,0.0,0.0,100,0.00,,,0.00,VWS V13.01,2013-03-30 18:58:00,
2013-03-30 14:00:00,54.3,54.3,30.53,North,0,0.0,0.0,100,0.00,,,0.00,VWS V13.01,2013-03-30 19:00:00,
2013-03-30 14:03:00,54.3,54.3,30.53,North,0,0.0,0.0,100,0.00,,,0.00,VWS V13.01,2013-03-30 19:03:00,
2013-03-30 14:05:00,54.3,54.3,30.53,North,0,0.0,0.0,100,0.00,,,0.00,VWS V13.01,2013-03-30 19:05:00,
2013-03-30 14:06:00,54.5,54.5,30.53,North,0,0.0,0.0,100,0.00,,,0.00,VWS V13.01,2013-03-30 19:06:00,
2013-03-30 14:08:00,54.3,54.3,30.53,North,0,0.0,0.0,100,0.00,,,0.00,VWS V13.01,2013-03-30 19:08:00,
2013-03-30 14:10:00,54.3,54.3,30.53,North,0,0.0,0.0,100,0.00,,,0.00,VWS V13.01,2013-03-30 19:10:00,
2013-03-30 14:11:00,54.3,54.3,30.53,North,0,0.0,0.0,100,0.00,,,0.00,VWS V13.01,2013-03-30 19:11:00,
2013-03-30 14:14:00,54.1,54.1,30.53,North,0,0.0,0.0,100,0.00,,,0.00,VWS V13.01,2013-03-30 19:14:00,
2013-03-30 14:15:00,54.1,54.1,30.53,North,0,0.0,0.0,100,0.00,,,0.00,VWS V13.01,2013-03-30 19:15:00,
2013-03-30 14:17:00,54.0,54.0,30.53,North,0,0.0,0.0,100,0.00,,,0.00,VWS V13.01,2013-03-30 19:17:00,
2013-03-30 14:19:00,54.1,54.1,30.53,North,0,0.0,0.0,100,0.00,,,0.00,VWS V13.01,2013-03-30 19:19:00,
2013-03-30 14:20:00,54.3,54.3,30.53,North,0,0.0,0.0,100,0.00,,,0.00,VWS V13.01,2013-03-30 19:20:00,
2013-03-30 14:21:00,54.1,54.1,30.53,North,0,0.0,0.0,100,0.00,,,0.00,VWS V13.01,2013-03-30 19:21:00,
2013-03-30 14:22:00,54.1,54.1,30.53,North,0,0.0,0.0,100,0.00,,,0.00,VWS V13.01,2013-03-30 19:22:00,
2013-03-30 14:24:00,54.3,54.3,30.53,North,0,0.0,0.0,100,0.00,,,0.00,VWS V13.01,2013-03-30 19:24:00,
2013-03-30 14:25:00,54.3,54.3,30.53,North,0,0.0,0.0,100,0.00,,,0.00,VWS V13.01,2013-03-30 19:25:00,
2013-03-30 14:26:00,54.5,54.5,30.53,North,0,0.0,0.0,100,0.00,,,0.00,VWS V13.01,2013-03-30 19:26:00,
2013-03-30 14:27:00,54.5,54.5,30.53,North,0,0.0,0.0,100,0.00,,,0.00,VWS V13.01,2013-03-30 19:27:00,
2013-03-30 14:29:00,54.7,54.7,30.53,North,0,0.0,0.0,100,0.00,,,0.00,VWS V13.01,2013-03-30 19:29:00,
2013-03-30 14:30:00,54.9,54.9,30.53,North,0,0.0,0.0,100,0.00,,,0.00,VWS V13.01,2013-03-30 19:30:00,
2013-03-30 14:31:00,54.9,54.9,30.53,North,0,0.0,0.0,100,0.00,,,0.00,VWS V13.01,2013-03-30 19:31:00,
2013-03-30 14:32:00,54.9,54.9,30.53,North,0,0.0,0.0,100,0.00,,,0.00,VWS V13.01,2013-03-30 19:32:00,
2013-03-30 14:34:00,54.9,54.9,30.53,North,0,0.0,0.0,100,0.00,,,0.00,VWS V13.01,2013-03-30 19:34:00,
2013-03-30 14:35:00,54.9,54.9,30.53,North,0,0.0,0.0,100,0.00,,,0.00,VWS V13.01,2013-03-30 19:35:00,
2013-03-30 14:36:00,54.9,54.9,30.53,North,0,0.0,0.0,100,0.00,,,0.00,VWS V13.01,2013-03-30 19:36:00,
2013-03-30 14:37:00,55.0,55.0,30.53,North,0,0.0,0.0,100,0.00,,,0.00,VWS V13.01,2013-03-30 19:37:00,
2013-03-30 14:39:00,55.0,55.0,30.53,North,0,0.0,0.0,100,0.00,,,0.00,VWS V13.01,2013-03-30 19:39:00,
2013-03-30 14:40:00,55.2,55.2,30.53,North,0,0.0,0.0,100,0.00,,,0.00,VWS V13.01,2013-03-30 19:40:00,
2013-03-30 14:41:00,55.2,55.2,30.53,North,0,0.0,0.0,100,0.00,,,0.00,VWS V13.01,2013-03-30 19:41:00,
2013-03-30 14:42:00,55.2,55.2,30.53,North,0,0.0,0.0,100,0.00,,,0.00,VWS V13.01,2013-03-30 19:42:00,
2013-03-30 14:44:00,55.4,55.4,30.53,North,0,0.0,0.0,100,0.00,,,0.00,VWS V13.01,2013-03-30 19:44:00,
2013-03-30 14:45:00,55.4,55.4,30.53,North,0,0.0,0.0,100,0.00,,,0.00,VWS V13.01,2013-03-30 19:45:00,
2013-03-30 14:46:00,55.4,55.4,30.53,North,0,0.0,0.0,100,0.00,,,0.00,VWS V13.01,2013-03-30 19:46:00,
2013-03-30 14:47:00,55.6,55.6,30.53,North,0,0.0,0.0,100,0.00,,,0.00,VWS V13.01,2013-03-30 19:47:00,
2013-03-30 14:49:00,55.9,55.9,30.53,North,0,0.0,0.0,100,0.00,,,0.00,VWS V13.01,2013-03-30 19:49:00,
2013-03-30 14:50:00,56.1,56.1,30.53,North,0,0.0,0.0,100,0.00,,,0.00,VWS V13.01,2013-03-30 19:50:00,
2013-03-30 14:51:00,56.3,56.3,30.53,North,0,0.0,0.0,100,0.00,,,0.00,VWS V13.01,2013-03-30 19:51:00,
2013-03-30 14:52:00,56.8,56.8,30.53,North,0,0.0,0.0,100,0.00,,,0.00,VWS V13.01,2013-03-30 19:52:00,
2013-03-30 14:54:00,57.4,57.4,30.53,North,0,0.0,0.0,100,0.00,,,0.00,VWS V13.01,2013-03-30 19:54:00,
2013-03-30 14:55:00,57.6,55.0,30.53,North,0,0.0,0.0,91,0.00,,,0.00,VWS V13.01,2013-03-30 19:55:00,
2013-03-30 14:56:00,57.9,57.9,30.53,North,0,0.0,0.0,100,0.00,,,0.00,VWS V13.01,2013-03-30 19:56:00,
2013-03-30 14:57:00,58.3,55.7,30.50,North,0,0.0,0.0,91,0.00,,,0.00,VWS V13.01,2013-03-30 19:57:00,
2013-03-30 14:59:00,58.5,52.0,30.50,North,0,0.0,0.0,79,0.00,,,0.00,VWS V13.01,2013-03-30 19:59:00,
2013-03-30 15:00:00,58.1,51.6,30.50,North,0,0.0,0.0,79,0.00,,,0.00,VWS V13.01,2013-03-30 20:00:00,
2013-03-30 15:01:00,57.9,51.5,30.50,North,0,0.0,0.0,79,0.00,,,0.00,VWS V13.01,2013-03-30 20:01:00,
2013-03-30 15:03:00,58.1,51.6,30.50,North,0,0.0,0.0,79,0.00,,,0.08,VWS V13.01,2013-03-30 20:03:00,
2013-03-30 15:04:00,58.1,51.6,30.50,North,0,0.0,0.0,79,0.08,,,0.08,VWS V13.01,2013-03-30 20:04:00,
2013-03-30 15:05:00,58.6,52.2,30.50,North,0,0.0,0.0,79,0.08,,,0.08,VWS V13.01,2013-03-30 20:05:00,
2013-03-30 15:06:00,58.5,52.0,30.50,North,0,0.0,0.0,79,0.08,,,0.08,VWS V13.01,2013-03-30 20:06:00,
2013-03-30 15:08:00,58.6,52.2,30.50,North,0,0.0,0.0,79,0.08,,,0.08,VWS V13.01,2013-03-30 20:08:00,
2013-03-30 15:09:00,58.8,56.2,30.50,North,0,0.0,0.0,91,0.08,,,0.08,VWS V13.01,2013-03-30 20:09:00,
2013-03-30 15:11:00,58.3,51.8,30.50,North,0,0.0,0.0,79,0.08,,,0.08,VWS V13.01,2013-03-30 20:11:00,
2013-03-30 15:12:00,58.5,52.0,30.50,North,0,0.0,0.0,79,0.08,,,0.08,VWS V13.01,2013-03-30 20:12:00,
2013-03-30 15:13:00,58.5,52.0,30.50,North,0,0.0,0.0,79,0.08,,,0.08,VWS V13.01,2013-03-30 20:13:00,
2013-03-30 15:14:00,58.3,51.8,30.50,North,0,0.0,0.0,79,0.08,,,0.08,VWS V13.01,2013-03-30 20:14:00,
2013-03-30 15:23:00,57.9,51.5,30.50,North,0,0.0,0.0,79,0.00,,,0.08,VWS V13.01,2013-03-30 20:23:00,
2013-03-30 15:28:00,58.3,55.7,30.50,North,0,0.0,0.0,91,0.08,,,0.08,VWS V13.01,2013-03-30 20:28:00,
2013-03-30 15:29:00,58.1,51.6,30.50,North,0,0.0,0.0,79,0.08,,,0.08,VWS V13.01,2013-03-30 20:29:00,
2013-03-30 15:33:00,57.9,51.5,30.50,North,0,0.0,0.0,79,0.08,,,0.08,VWS V13.01,2013-03-30 20:33:00,
2013-03-30 15:34:00,57.9,51.5,30.50,North,0,0.0,0.0,79,0.08,,,0.08,VWS V13.01,2013-03-30 20:34:00,
2013-03-30 15:38:00,57.4,50.9,30.50,North,0,0.0,0.0,79,0.08,,,0.08,VWS V13.01,2013-03-30 20:38:00,
2013-03-30 15:39:00,57.4,50.9,30.50,North,0,0.0,0.0,79,0.08,,,0.08,VWS V13.01,2013-03-30 20:39:00,
2013-03-30 15:43:00,57.7,51.3,30.50,North,0,0.0,0.0,79,0.08,,,0.08,VWS V13.01,2013-03-30 20:43:00,
2013-03-30 15:44:00,57.7,51.3,30.50,North,0,0.0,0.0,79,0.08,,,0.08,VWS V13.01,2013-03-30 20:44:00,
2013-03-30 15:49:00,58.1,51.6,30.50,North,0,0.0,0.0,79,0.08,,,0.08,VWS V13.01,2013-03-30 20:49:00,
2013-03-30 15:54:00,58.5,52.0,30.50,North,0,0.0,0.0,79,0.08,,,0.08,VWS V13.01,2013-03-30 20:54:00,
2013-03-30 15:59:00,59.2,52.7,30.50,North,0,0.0,0.0,79,0.08,,,0.08,VWS V13.01,2013-03-30 20:59:00,
2013-03-30 16:04:00,58.6,52.2,30.50,North,0,0.0,0.0,79,0.00,,,0.08,VWS V13.01,2013-03-30 21:04:00,
2013-03-30 16:09:00,58.8,52.3,30.50,North,0,0.0,0.0,79,0.00,,,0.08,VWS V13.01,2013-03-30 21:09:00,
2013-03-30 16:14:00,58.8,52.3,30.50,North,0,0.0,0.0,79,0.00,,,0.08,VWS V13.01,2013-03-30 21:14:00,
2013-03-30 16:19:00,59.9,53.4,30.50,North,0,0.0,0.0,79,0.00,,,0.08,VWS V13.01,2013-03-30 21:19:00,
2013-03-30 16:24:00,59.5,46.1,30.50,North,0,0.0,0.0,61,0.00,,,0.08,VWS V13.01,2013-03-30 21:24:00,
2013-03-30 16:29:00,59.7,53.2,30.50,North,0,0.0,0.0,79,0.00,,,0.08,VWS V13.01,2013-03-30 21:29:00,
2013-03-30 16:34:00,60.1,46.6,30.50,North,0,0.0,0.0,61,0.00,,,0.08,VWS V13.01,2013-03-30 21:34:00,
2013-03-30 16:39:00,60.4,46.9,30.50,North,0,0.0,0.0,61,0.00,,,0.08,VWS V13.01,2013-03-30 21:39:00,
2013-03-30 16:44:00,61.3,47.8,30.50,North,0,0.0,0.0,61,0.00,,,0.08,VWS V13.01,2013-03-30 21:44:00,
2013-03-30 16:49:00,61.2,47.6,30.50,North,0,0.0,0.0,61,0.00,,,0.08,VWS V13.01,2013-03-30 21:49:00,
2013-03-30 16:54:00,61.5,48.0,30.50,North,0,0.0,0.0,61,0.00,,,0.08,VWS V13.01,2013-03-30 21:54:00,
2013-03-30 16:59:00,61.7,48.1,30.50,North,0,0.0,0.0,61,0.00,,,0.08,VWS V13.01,2013-03-30 21:59:00,
2013-03-30 17:04:00,61.9,48.3,30.50,North,0,0.0,0.0,61,0.00,,,0.08,VWS V13.01,2013-03-30 22:04:00,
2013-03-30 17:09:00,62.8,46.4,30.50,North,0,0.0,0.0,55,0.00,,,0.08,VWS V13.01,2013-03-30 22:09:00,
2013-03-30 17:10:00,63.0,46.6,30.50,North,0,0.0,0.0,55,0.00,,,0.08,VWS V13.01,2013-03-30 22:10:00,
2013-03-30 17:14:00,62.8,46.4,30.50,North,0,0.0,0.0,55,0.00,,,0.08,VWS V13.01,2013-03-30 22:14:00,
2013-03-30 17:15:00,62.2,48.6,30.50,North,0,0.0,0.0,61,0.00,,,0.08,VWS V13.01,2013-03-30 22:15:00,
2013-03-30 17:19:00,63.5,47.1,30.50,North,0,0.0,0.0,55,0.00,,,0.08,VWS V13.01,2013-03-30 22:19:00,
2013-03-30 17:20:00,63.3,46.9,30.50,North,0,0.0,0.0,55,0.00,,,0.08,VWS V13.01,2013-03-30 22:20:00,
2013-03-30 17:24:00,64.4,47.9,30.50,North,0,0.0,0.0,55,0.00,,,0.08,VWS V13.01,2013-03-30 22:24:00,
2013-03-30 17:25:00,64.4,47.9,30.50,North,0,0.0,0.0,55,0.00,,,0.08,VWS V13.01,2013-03-30 22:25:00,
2013-03-30 17:29:00,63.5,47.1,30.53,North,0,0.0,0.0,55,0.00,,,0.08,VWS V13.01,2013-03-30 22:29:00,
2013-03-30 17:30:00,63.5,47.1,30.53,North,0,0.0,0.0,55,0.00,,,0.08,VWS V13.01,2013-03-30 22:30:00,
2013-03-30 17:34:00,62.4,48.8,30.53,North,0,0.0,0.0,61,0.00,,,0.08,VWS V13.01,2013-03-30 22:34:00,
2013-03-30 17:35:00,62.4,48.8,30.53,North,0,0.0,0.0,61,0.00,,,0.08,VWS V13.01,2013-03-30 22:35:00,
2013-03-30 17:39:00,62.8,46.4,30.53,North,0,0.0,0.0,55,0.00,,,0.08,VWS V13.01,2013-03-30 22:39:00,
2013-03-30 17:40:00,62.6,46.2,30.53,North,0,0.0,0.0,55,0.00,,,0.08,VWS V13.01,2013-03-30 22:40:00,
2013-03-30 17:44:00,63.3,46.9,30.53,North,0,0.0,0.0,55,0.00,,,0.08,VWS V13.01,2013-03-30 22:44:00,
2013-03-30 17:45:00,63.3,46.9,30.53,North,0,0.0,0.0,55,0.00,,,0.08,VWS V13.01,2013-03-30 22:45:00,
2013-03-30 17:50:00,63.5,47.1,30.53,North,0,0.0,0.0,55,0.00,,,0.08,VWS V13.01,2013-03-30 22:50:00,
2013-03-30 17:55:00,62.8,46.4,30.53,North,0,0.0,0.0,55,0.00,,,0.08,VWS V13.01,2013-03-30 22:55:00,
2013-03-30 18:00:00,62.1,48.5,30.53,North,0,0.0,0.0,61,0.00,,,0.08,VWS V13.01,2013-03-30 23:00:00,
2013-03-30 18:05:00,61.5,48.0,30.53,North,0,0.0,0.0,61,0.00,,,0.08,VWS V13.01,2013-03-30 23:05:00,
2013-03-30 18:10:00,61.3,47.8,30.53,North,0,0.0,0.0,61,0.00,,,0.08,VWS V13.01,2013-03-30 23:10:00,
2013-03-30 18:15:00,61.7,48.1,30.53,North,0,0.0,0.0,61,0.00,,,0.08,VWS V13.01,2013-03-30 23:15:00,
2013-03-30 18:20:00,62.2,48.6,30.53,North,0,0.0,0.0,61,0.00,,,0.08,VWS V13.01,2013-03-30 23:20:00,
2013-03-30 18:25:00,61.9,48.3,30.53,North,0,0.0,0.0,61,0.00,,,0.08,VWS V13.01,2013-03-30 23:25:00,
2013-03-30 18:26:00,62.1,48.5,30.53,North,0,0.0,0.0,61,0.00,,,0.08,VWS V13.01,2013-03-30 23:26:00,
2013-03-30 18:30:00,62.2,48.6,30.53,North,0,0.0,0.0,61,0.00,,,0.08,VWS V13.01,2013-03-30 23:30:00,
2013-03-30 18:31:00,62.2,48.6,30.53,North,0,0.0,0.0,61,0.00,,,0.08,VWS V13.01,2013-03-30 23:31:00,
2013-03-30 18:35:00,61.7,48.1,30.53,North,0,0.0,0.0,61,0.00,,,0.08,VWS V13.01,2013-03-30 23:35:00,
2013-03-30 18:36:00,61.7,48.1,30.53,North,0,0.0,0.0,61,0.00,,,0.08,VWS V13.01,2013-03-30 23:36:00,
2013-03-30 18:40:00,61.5,48.0,30.53,North,0,0.0,0.0,61,0.00,,,0.08,VWS V13.01,2013-03-30 23:40:00,
2013-03-30 18:41:00,61.5,48.0,30.53,North,0,0.0,0.0,61,0.00,,,0.08,VWS V13.01,2013-03-30 23:41:00,
2013-03-30 18:42:00,61.5,48.0,30.56,North,0,0.0,0.0,61,0.00,,,0.08,VWS V13.01,2013-03-30 23:42:00,
2013-03-30 18:45:00,60.8,47.3,30.56,North,0,0.0,0.0,61,0.00,,,0.08,VWS V13.01,2013-03-30 23:45:00,
2013-03-30 18:46:00,60.6,47.1,30.56,North,0,0.0,0.0,61,0.00,,,0.08,VWS V13.01,2013-03-30 23:46:00,
2013-03-30 18:47:00,60.4,46.9,30.56,North,0,0.0,0.0,61,0.00,,,0.08,VWS V13.01,2013-03-30 23:47:00,
2013-03-30 18:50:00,60.3,46.8,30.56,North,0,0.0,0.0,61,0.00,,,0.08,VWS V13.01,2013-03-30 23:50:00,
2013-03-30 18:51:00,60.1,46.6,30.56,North,0,0.0,0.0,61,0.00,,,0.08,VWS V13.01,2013-03-30 23:51:00,
2013-03-30 18:52:00,60.1,46.6,30.56,North,0,0.0,0.0,61,0.00,,,0.08,VWS V13.01,2013-03-30 23:52:00,
2013-03-30 18:55:00,59.7,46.3,30.56,North,0,0.0,0.0,61,0.00,,,0.08,VWS V13.01,2013-03-30 23:55:00,
2013-03-30 18:57:00,59.7,46.3,30.56,North,0,0.0,0.0,61,0.00,,,0.08,VWS V13.01,2013-03-30 23:57:00,
2013-03-30 19:00:00,59.5,46.1,30.56,North,0,0.0,0.0,61,0.00,,,0.08,VWS V13.01,2013-03-31 00:00:00,
2013-03-30 19:02:00,59.4,45.9,30.56,North,0,0.0,0.0,61,0.00,,,0.08,VWS V13.01,2013-03-31 00:02:00,
2013-03-30 19:05:00,59.2,45.8,30.56,North,0,0.0,0.0,61,0.00,,,0.08,VWS V13.01,2013-03-31 00:05:00,
2013-03-30 19:07:00,59.0,45.6,30.56,North,0,0.0,0.0,61,0.00,,,0.08,VWS V13.01,2013-03-31 00:07:00,
2013-03-30 19:10:00,58.8,45.4,30.56,North,0,0.0,0.0,61,0.00,,,0.08,VWS V13.01,2013-03-31 00:10:00,
2013-03-30 19:11:00,58.8,45.4,30.56,North,0,0.0,0.0,61,0.00,,,0.08,VWS V13.01,2013-03-31 00:11:00,
2013-03-30 19:12:00,58.6,45.2,30.56,North,0,0.0,0.0,61,0.00,,,0.08,VWS V13.01,2013-03-31 00:12:00,
2013-03-30 19:15:00,58.6,45.2,30.56,North,0,0.0,0.0,61,0.00,,,0.08,VWS V13.01,2013-03-31 00:15:00,
2013-03-30 19:16:00,58.6,45.2,30.56,North,0,0.0,0.0,61,0.00,,,0.08,VWS V13.01,2013-03-31 00:16:00,
2013-03-30 19:17:00,58.6,45.2,30.56,North,0,0.0,0.0,61,0.00,,,0.08,VWS V13.01,2013-03-31 00:17:00,
2013-03-30 19:21:00,58.3,44.9,30.56,North,0,0.0,0.0,61,0.00,,,0.08,VWS V13.01,2013-03-31 00:21:00,
2013-03-30 19:22:00,58.1,51.6,30.56,North,0,0.0,0.0,79,0.00,,,0.08,VWS V13.01,2013-03-31 00:22:00,
2013-03-30 19:26:00,57.6,51.1,30.56,North,0,0.0,0.0,79,0.00,,,0.08,VWS V13.01,2013-03-31 00:26:00,
2013-03-30 19:27:00,57.2,50.8,30.56,North,0,0.0,0.0,79,0.00,,,0.08,VWS V13.01,2013-03-31 00:27:00,
2013-03-30 20:19:00,54.1,54.1,30.56,ESE,123,0.0,0.0,100,0.00,,,0.08,VWS V13.01,2013-03-31 01:19:00,
2013-03-30 20:20:00,54.0,54.0,30.56,ESE,123,0.0,0.0,100,0.00,,,0.08,VWS V13.01,2013-03-31 01:20:00,
2013-03-30 20:24:00,53.2,53.2,30.56,ESE,123,0.0,0.0,100,0.00,,,0.08,VWS V13.01,2013-03-31 01:24:00,
2013-03-30 20:25:00,53.2,53.2,30.56,ESE,123,0.0,0.0,100,0.00,,,0.08,VWS V13.01,2013-03-31 01:25:00,
2013-03-30 20:29:00,52.7,52.7,30.56,ESE,123,0.0,0.0,100,0.00,,,0.08,VWS V13.01,2013-03-31 01:29:00,
2013-03-30 20:30:00,52.7,52.7,30.56,ESE,123,0.0,0.0,100,0.00,,,0.08,VWS V13.01,2013-03-31 01:30:00,
2013-03-30 20:34:00,52.7,52.7,30.56,ESE,123,0.0,0.0,100,0.00,,,0.08,VWS V13.01,2013-03-31 01:34:00,
2013-03-30 20:35:00,52.7,52.7,30.56,ESE,123,0.0,0.0,100,0.00,,,0.08,VWS V13.01,2013-03-31 01:35:00,
2013-03-30 20:39:00,53.1,53.1,30.56,ESE,123,0.0,0.0,100,0.00,,,0.08,VWS V13.01,2013-03-31 01:39:00,
2013-03-30 20:40:00,53.1,53.1,30.56,ESE,123,0.0,0.0,100,0.00,,,0.08,VWS V13.01,2013-03-31 01:40:00,
2013-03-30 20:45:00,53.1,53.1,30.56,ESE,123,0.0,0.0,100,0.00,,,0.08,VWS V13.01,2013-03-31 01:45:00,
2013-03-30 20:50:00,52.7,52.7,30.56,ESE,123,0.0,0.0,100,0.00,,,0.08,VWS V13.01,2013-03-31 01:50:00,
2013-03-30 20:55:00,52.3,52.3,30.56,ESE,123,0.0,0.0,100,0.00,,,0.08,VWS V13.01,2013-03-31 01:55:00,
2013-03-30 21:00:00,52.2,52.2,30.56,ESE,123,0.0,0.0,100,0.00,,,0.08,VWS V13.01,2013-03-31 02:00:00,
2013-03-30 21:05:00,51.8,51.8,30.56,ESE,123,0.0,0.0,100,0.00,,,0.08,VWS V13.01,2013-03-31 02:05:00,
2013-03-30 21:10:00,52.0,52.0,30.56,ESE,123,0.0,0.0,100,0.00,,,0.08,VWS V13.01,2013-03-31 02:10:00,
2013-03-30 21:15:00,52.0,52.0,30.56,ESE,123,0.0,0.0,100,0.00,,,0.08,VWS V13.01,2013-03-31 02:15:00,
2013-03-30 21:20:00,52.2,52.2,30.56,ESE,123,0.0,0.0,100,0.00,,,0.08,VWS V13.01,2013-03-31 02:20:00,
2013-03-30 21:25:00,52.0,52.0,30.56,ESE,123,0.0,0.0,100,0.00,,,0.08,VWS V13.01,2013-03-31 02:25:00,
2013-03-30 21:30:00,51.4,51.4,30.56,ESE,123,0.0,0.0,100,0.00,,,0.08,VWS V13.01,2013-03-31 02:30:00,
2013-03-30 21:31:00,51.4,51.4,30.56,ESE,123,0.0,0.0,100,0.00,,,0.08,VWS V13.01,2013-03-31 02:31:00,
2013-03-30 21:35:00,51.6,51.6,30.56,ESE,123,0.0,0.0,100,0.00,,,0.08,VWS V13.01,2013-03-31 02:35:00,
2013-03-30 21:36:00,51.4,51.4,30.56,ESE,123,0.0,0.0,100,0.00,,,0.08,VWS V13.01,2013-03-31 02:36:00,
2013-03-30 21:40:00,51.3,51.3,30.56,ESE,123,0.0,0.0,100,0.00,,,0.08,VWS V13.01,2013-03-31 02:40:00,
2013-03-30 21:41:00,51.3,51.3,30.56,ESE,123,0.0,0.0,100,0.00,,,0.08,VWS V13.01,2013-03-31 02:41:00,
2013-03-30 21:42:00,51.3,51.3,30.56,ESE,123,0.0,0.0,100,0.00,,,0.08,VWS V13.01,2013-03-31 02:42:00,
2013-03-30 21:45:00,51.1,51.1,30.56,ESE,123,0.0,0.0,100,0.00,,,0.08,VWS V13.01,2013-03-31 02:45:00,
2013-03-30 21:46:00,50.9,50.9,30.56,ESE,123,0.0,0.0,100,0.00,,,0.08,VWS V13.01,2013-03-31 02:46:00,
2013-03-30 21:47:00,50.9,50.9,30.56,ESE,123,0.0,0.0,100,0.00,,,0.08,VWS V13.01,2013-03-31 02:47:00,
2013-03-30 21:50:00,50.7,50.7,30.56,ESE,123,0.0,0.0,100,0.00,,,0.08,VWS V13.01,2013-03-31 02:50:00,
2013-03-30 21:51:00,50.5,50.5,30.56,ESE,123,0.0,0.0,100,0.00,,,0.08,VWS V13.01,2013-03-31 02:51:00,
2013-03-30 21:52:00,50.7,50.7,30.56,ESE,123,0.0,0.0,100,0.00,,,0.08,VWS V13.01,2013-03-31 02:52:00,
2013-03-30 21:55:00,51.1,51.1,30.56,ESE,123,0.0,0.0,100,0.00,,,0.08,VWS V13.01,2013-03-31 02:55:00,
2013-03-30 21:56:00,51.1,51.1,30.56,ESE,123,0.0,0.0,100,0.00,,,0.08,VWS V13.01,2013-03-31 02:56:00,
2013-03-30 21:57:00,51.1,51.1,30.59,ESE,123,0.0,0.0,100,0.00,,,0.08,VWS V13.01,2013-03-31 02:57:00,
2013-03-30 22:00:00,50.9,50.9,30.59,ESE,123,0.0,0.0,100,0.00,,,0.08,VWS V13.01,2013-03-31 03:00:00,
2013-03-30 22:01:00,51.1,51.1,30.59,ESE,123,0.0,0.0,100,0.00,,,0.08,VWS V13.01,2013-03-31 03:01:00,
2013-03-30 22:02:00,50.9,50.9,30.59,ESE,123,0.0,0.0,100,0.00,,,0.08,VWS V13.01,2013-03-31 03:02:00,
2013-03-30 22:05:00,50.9,50.9,30.59,ESE,123,0.0,0.0,100,0.00,,,0.08,VWS V13.01,2013-03-31 03:05:00,
2013-03-30 22:06:00,50.9,50.9,30.59,ESE,123,0.0,0.0,100,0.00,,,0.08,VWS V13.01,2013-03-31 03:06:00,
2013-03-30 22:07:00,50.7,50.7,30.59,ESE,123,0.0,0.0,100,0.00,,,0.08,VWS V13.01,2013-03-31 03:07:00,
2013-03-30 22:10:00,50.5,50.5,30.59,ESE,123,0.0,0.0,100,0.00,,,0.08,VWS V13.01,2013-03-31 03:10:00,
2013-03-30 22:11:00,50.4,50.4,30.59,ESE,123,0.0,0.0,100,0.00,,,0.08,VWS V13.01,2013-03-31 03:11:00,
2013-03-30 22:12:00,50.4,50.4,30.56,ESE,123,0.0,0.0,100,0.00,,,0.08,VWS V13.01,2013-03-31 03:12:00,
2013-03-30 22:15:00,50.4,50.4,30.56,ESE,123,0.0,0.0,100,0.00,,,0.08,VWS V13.01,2013-03-31 03:15:00,
2013-03-30 22:16:00,50.4,50.4,30.56,ESE,123,0.0,0.0,100,0.00,,,0.08,VWS V13.01,2013-03-31 03:16:00,
2013-03-30 22:17:00,50.2,50.2,30.56,ESE,123,0.0,0.0,100,0.00,,,0.08,VWS V13.01,2013-03-31 03:17:00,
2013-03-30 22:20:00,49.8,49.8,30.56,ESE,123,0.0,0.0,100,0.00,,,0.08,VWS V13.01,2013-03-31 03:20:00,
2013-03-30 22:21:00,49.8,49.8,30.56,ESE,123,0.0,0.0,100,0.00,,,0.08,VWS V13.01,2013-03-31 03:21:00,
2013-03-30 22:22:00,49.8,49.8,30.56,ESE,123,0.0,0.0,100,0.00,,,0.08,VWS V13.01,2013-03-31 03:22:00,
2013-03-30 22:26:00,50.7,50.7,30.56,ESE,123,0.0,0.0,100,0.00,,,0.08,VWS V13.01,2013-03-31 03:26:00,
2013-03-30 22:27:00,51.1,51.1,30.56,ESE,123,0.0,0.0,100,0.00,,,0.08,VWS V13.01,2013-03-31 03:27:00,
2013-03-30 22:31:00,51.1,51.1,30.56,ESE,123,0.0,0.0,100,0.00,,,0.08,VWS V13.01,2013-03-31 03:31:00,
2013-03-30 22:32:00,50.9,50.9,30.56,ESE,123,0.0,0.0,100,0.00,,,0.08,VWS V13.01,2013-03-31 03:32:00,
2013-03-30 22:36:00,51.1,51.1,30.56,ESE,123,0.0,0.0,100,0.00,,,0.08,VWS V13.01,2013-03-31 03:36:00,
2013-03-30 22:37:00,51.1,51.1,30.56,ESE,123,0.0,0.0,100,0.00,,,0.08,VWS V13.01,2013-03-31 03:37:00,
2013-03-30 22:41:00,51.1,51.1,30.56,ESE,123,0.0,0.0,100,0.00,,,0.08,VWS V13.01,2013-03-31 03:41:00,
2013-03-30 22:42:00,51.1,51.1,30.56,ESE,123,0.0,0.0,100,0.00,,,0.08,VWS V13.01,2013-03-31 03:42:00,
2013-03-30 22:46:00,51.1,51.1,30.56,ESE,123,0.0,0.0,100,0.00,,,0.08,VWS V13.01,2013-03-31 03:46:00,
2013-03-30 22:47:00,51.1,51.1,30.56,ESE,123,0.0,0.0,100,0.00,,,0.08,VWS V13.01,2013-03-31 03:47:00,
2013-03-30 22:48:00,51.1,51.1,30.56,ESE,123,0.0,0.0,100,0.00,,,0.08,VWS V13.01,2013-03-31 03:48:00,
2013-03-30 22:51:00,50.9,50.9,30.56,ESE,123,0.0,0.0,100,0.00,,,0.08,VWS V13.01,2013-03-31 03:51:00,
2013-03-30 22:52:00,50.7,50.7,30.56,ESE,123,0.0,0.0,100,0.00,,,0.08,VWS V13.01,2013-03-31 03:52:00,
2013-03-30 22:53:00,50.7,50.7,30.56,ESE,123,0.0,0.0,100,0.00,,,0.08,VWS V13.01,2013-03-31 03:53:00,
2013-03-30 22:56:00,50.4,50.4,30.56,ESE,123,0.0,0.0,100,0.00,,,0.08,VWS V13.01,2013-03-31 03:56:00,
2013-03-30 22:57:00,50.5,50.5,30.56,ESE,123,0.0,0.0,100,0.00,,,0.08,VWS V13.01,2013-03-31 03:57:00,
2013-03-30 22:58:00,50.5,50.5,30.56,ESE,123,0.0,0.0,100,0.00,,,0.08,VWS V13.01,2013-03-31 03:58:00,
2013-03-30 23:00:00,50.7,50.7,30.56,ESE,123,0.0,0.0,100,0.00,,,0.08,VWS V13.01,2013-03-31 04:00:00,
2013-03-30 23:05:00,50.2,50.2,30.56,ESE,123,0.0,0.0,100,0.00,,,0.08,VWS V13.01,2013-03-31 04:05:00,
2013-03-30 23:10:00,50.0,50.0,30.56,ESE,123,0.0,0.0,100,0.00,,,0.08,VWS V13.01,2013-03-31 04:10:00,
2013-03-30 23:15:00,50.4,50.4,30.56,ESE,123,0.0,0.0,100,0.00,,,0.08,VWS V13.01,2013-03-31 04:15:00,
2013-03-30 23:20:00,49.5,49.5,30.56,ESE,123,0.0,0.0,100,0.00,,,0.08,VWS V13.01,2013-03-31 04:20:00,
2013-03-30 23:25:00,48.7,48.7,30.56,ESE,123,0.0,0.0,100,0.00,,,0.08,VWS V13.01,2013-03-31 04:25:00,
2013-03-30 23:30:00,50.2,50.2,30.56,ESE,123,0.0,0.0,100,0.00,,,0.08,VWS V13.01,2013-03-31 04:30:00,
2013-03-30 23:35:00,49.6,49.6,30.56,ESE,123,0.0,0.0,100,0.00,,,0.08,VWS V13.01,2013-03-31 04:35:00,
2013-03-30 23:40:00,48.9,48.9,30.56,ESE,123,0.0,0.0,100,0.00,,,0.08,VWS V13.01,2013-03-31 04:40:00,
2013-03-30 23:45:00,48.7,48.7,30.56,ESE,123,0.0,0.0,100,0.00,,,0.08,VWS V13.01,2013-03-31 04:45:00,
2013-03-30 23:50:00,49.5,49.5,30.56,ESE,123,0.0,0.0,100,0.00,,,0.08,VWS V13.01,2013-03-31 04:50:00,
2013-03-30 23:55:00,50.0,50.0,30.56,ESE,123,0.0,0.0,100,0.00,,,0.08,VWS V13.01,2013-03-31 04:55:00,